Wetterdaten: Donnerstag, 27.10.2022
Datum Zeit Temp. 2m Temp +5 cm Feuchte A. Luftdruck Regen Wind Richtung Richtung Sonnenschein UV Solar Taupunkt Windchill Windben
27.10.2022 00:00 7,3 C 5,6 C 92 % 1025,2 hPa 0,0 l/m 1,6 km/h (1 Bft) S-SW 201 0 min 0,0 UV-I 0 W/m 6,1 C 7,3 C 3,2 km/h (1 Bft)
27.10.2022 00:03 7,3 C 5,6 C 93 % 1025,2 hPa 0,0 l/m 1,6 km/h (1 Bft) S-SW 201 0 min 0,0 UV-I 0 W/m 6,2 C 7,3 C 3,2 km/h (1 Bft)
27.10.2022 00:09 7,6 C 5,6 C 93 % 1025,3 hPa 0,0 l/m 0,2 km/h (0 Bft) S-SW 201 0 min 0,0 UV-I 0 W/m 6,5 C 7,6 C 1,6 km/h (1 Bft)
27.10.2022 00:12 7,2 C 5,6 C 93 % 1025,3 hPa 0,0 l/m 0,0 km/h (0 Bft) S-SW 201 0 min 0,0 UV-I 0 W/m 6,1 C 7,2 C 0,0 km/h (0 Bft)
27.10.2022 00:15 6,9 C 5,0 C 93 % 1025,4 hPa 0,0 l/m 0,0 km/h (0 Bft) S-SW 201 0 min 0,0 UV-I 0 W/m 5,8 C 6,9 C 0,0 km/h (0 Bft)
27.10.2022 00:18 6,9 C 5,0 C 93 % 1025,2 hPa 0,0 l/m 0,0 km/h (0 Bft) S-SW 201 0 min 0,0 UV-I 0 W/m 5,8 C 6,9 C 0,0 km/h (0 Bft)
27.10.2022 00:21 7,0 C 5,0 C 93 % 1025,2 hPa 0,0 l/m 0,9 km/h (0 Bft) S-SW 201 0 min 0,0 UV-I 0 W/m 5,9 C 7,0 C 3,2 km/h (1 Bft)
27.10.2022 00:24 7,1 C 5,6 C 94 % 1025,3 hPa 0,0 l/m 0,2 km/h (0 Bft) S-SW 201 0 min 0,0 UV-I 0 W/m 6,2 C 7,1 C 1,6 km/h (1 Bft)
27.10.2022 00:27 7,1 C 5,6 C 93 % 1025,3 hPa 0,0 l/m 0,7 km/h (0 Bft) S-SW 201 0 min 0,0 UV-I 0 W/m 6,0 C 7,1 C 3,2 km/h (1 Bft)
27.10.2022 00:30 7,1 C 5,0 C 93 % 1025,4 hPa 0,0 l/m 1,6 km/h (1 Bft) S-SW 201 0 min 0,0 UV-I 0 W/m 6,0 C 7,1 C 3,2 km/h (1 Bft)
27.10.2022 00:33 6,8 C 5,0 C 93 % 1025,4 hPa 0,0 l/m 0,8 km/h (0 Bft) S-SW 201 0 min 0,0 UV-I 0 W/m 5,7 C 6,8 C 1,6 km/h (1 Bft)
27.10.2022 00:36 6,9 C 5,0 C 94 % 1025,3 hPa 0,0 l/m 0,2 km/h (0 Bft) S-SW 201 0 min 0,0 UV-I 0 W/m 6,0 C 6,9 C 1,6 km/h (1 Bft)
27.10.2022 00:39 7,1 C 5,0 C 94 % 1025,5 hPa 0,0 l/m 0,4 km/h (0 Bft) S-SW 201 0 min 0,0 UV-I 0 W/m 6,2 C 7,1 C 1,6 km/h (1 Bft)
27.10.2022 00:42 7,2 C 5,0 C 94 % 1025,3 hPa 0,0 l/m 0,2 km/h (0 Bft) S-SW 201 0 min 0,0 UV-I 0 W/m 6,3 C 7,2 C 1,6 km/h (1 Bft)
27.10.2022 00:45 7,1 C 5,0 C 94 % 1025,4 hPa 0,0 l/m 0,0 km/h (0 Bft) S-SW 201 0 min 0,0 UV-I 0 W/m 6,2 C 7,1 C 1,6 km/h (1 Bft)
27.10.2022 00:48 6,9 C 5,0 C 93 % 1025,4 hPa 0,0 l/m 0,0 km/h (0 Bft) S-SW 201 0 min 0,0 UV-I 0 W/m 5,8 C 6,9 C 0,0 km/h (0 Bft)
27.10.2022 00:51 7,1 C 5,0 C 94 % 1025,5 hPa 0,0 l/m 0,0 km/h (0 Bft) S-SW 201 0 min 0,0 UV-I 0 W/m 6,2 C 7,1 C 0,0 km/h (0 Bft)
27.10.2022 00:54 7,2 C 5,0 C 94 % 1025,3 hPa 0,0 l/m 0,0 km/h (0 Bft) S-SW 201 0 min 0,0 UV-I 0 W/m 6,3 C 7,2 C 0,0 km/h (0 Bft)
27.10.2022 00:57 7,2 C 5,6 C 94 % 1025,4 hPa 0,0 l/m 0,0 km/h (0 Bft) S-SW 201 0 min 0,0 UV-I 0 W/m 6,3 C 7,2 C 0,0 km/h (0 Bft)
27.10.2022 01:00 6,9 C 5,0 C 93 % 1025,5 hPa 0,0 l/m 0,0 km/h (0 Bft) S-SW 201 0 min 0,0 UV-I 0 W/m 5,8 C 6,9 C 0,0 km/h (0 Bft)
27.10.2022 01:03 6,8 C 5,6 C 93 % 1025,4 hPa 0,0 l/m 0,0 km/h (0 Bft) S-SW 201 0 min 0,0 UV-I 0 W/m 5,7 C 6,8 C 0,0 km/h (0 Bft)
27.10.2022 01:06 6,7 C 5,0 C 93 % 1025,5 hPa 0,0 l/m 0,1 km/h (0 Bft) S-SW 201 0 min 0,0 UV-I 0 W/m 5,6 C 6,7 C 1,6 km/h (1 Bft)
27.10.2022 01:09 6,7 C 5,0 C 94 % 1025,5 hPa 0,0 l/m 2,1 km/h (1 Bft) S-SW 201 0 min 0,0 UV-I 0 W/m 5,8 C 6,7 C 3,2 km/h (1 Bft)
27.10.2022 01:12 6,8 C 5,6 C 94 % 1025,4 hPa 0,0 l/m 2,9 km/h (1 Bft) S-SW 201 0 min 0,0 UV-I 0 W/m 5,9 C 6,8 C 4,8 km/h (1 Bft)
27.10.2022 01:15 6,8 C 5,0 C 94 % 1025,4 hPa 0,0 l/m 3,0 km/h (1 Bft) S-SW 201 0 min 0,0 UV-I 0 W/m 5,9 C 6,8 C 4,8 km/h (1 Bft)
27.10.2022 01:18 6,7 C 5,0 C 94 % 1025,4 hPa 0,0 l/m 1,9 km/h (1 Bft) S-SW 201 0 min 0,0 UV-I 0 W/m 5,8 C 6,7 C 3,2 km/h (1 Bft)
27.10.2022 01:21 6,6 C 5,0 C 94 % 1025,5 hPa 0,0 l/m 1,5 km/h (1 Bft) S-SW 201 0 min 0,0 UV-I 0 W/m 5,7 C 6,6 C 3,2 km/h (1 Bft)
27.10.2022 01:24 6,9 C 5,6 C 94 % 1025,4 hPa 0,0 l/m 4,3 km/h (1 Bft) SW 221 0 min 0,0 UV-I 0 W/m 6,0 C 6,9 C 6,4 km/h (2 Bft)
27.10.2022 01:27 7,2 C 5,6 C 94 % 1025,5 hPa 0,0 l/m 3,5 km/h (1 Bft) SW 223 0 min 0,0 UV-I 0 W/m 6,3 C 7,2 C 6,4 km/h (2 Bft)
27.10.2022 01:30 6,7 C 5,0 C 93 % 1025,4 hPa 0,0 l/m 1,9 km/h (1 Bft) SW 223 0 min 0,0 UV-I 0 W/m 5,6 C 6,7 C 3,2 km/h (1 Bft)
27.10.2022 01:33 6,7 C 5,0 C 94 % 1025,3 hPa 0,0 l/m 1,9 km/h (1 Bft) SW 223 0 min 0,0 UV-I 0 W/m 5,8 C 6,7 C 3,2 km/h (1 Bft)
27.10.2022 01:36 6,4 C 5,0 C 93 % 1025,3 hPa 0,0 l/m 0,5 km/h (0 Bft) SW 223 0 min 0,0 UV-I 0 W/m 5,4 C 6,4 C 1,6 km/h (1 Bft)
27.10.2022 01:39 6,6 C 5,0 C 94 % 1025,3 hPa 0,0 l/m 0,8 km/h (0 Bft) SW 223 0 min 0,0 UV-I 0 W/m 5,7 C 6,6 C 3,2 km/h (1 Bft)
27.10.2022 01:42 6,8 C 5,0 C 94 % 1025,3 hPa 0,0 l/m 2,3 km/h (1 Bft) SW 223 0 min 0,0 UV-I 0 W/m 5,9 C 6,8 C 3,2 km/h (1 Bft)
27.10.2022 01:45 6,9 C 5,0 C 94 % 1025,4 hPa 0,0 l/m 1,5 km/h (1 Bft) SW 223 0 min 0,0 UV-I 0 W/m 6,0 C 6,9 C 3,2 km/h (1 Bft)
27.10.2022 01:48 6,8 C 4,4 C 94 % 1025,4 hPa 0,0 l/m 0,4 km/h (0 Bft) SW 223 0 min 0,0 UV-I 0 W/m 5,9 C 6,8 C 1,6 km/h (1 Bft)
27.10.2022 01:51 6,7 C 4,4 C 94 % 1025,4 hPa 0,0 l/m 0,1 km/h (0 Bft) SW 223 0 min 0,0 UV-I 0 W/m 5,8 C 6,7 C 1,6 km/h (1 Bft)
27.10.2022 01:54 6,4 C 4,4 C 93 % 1025,3 hPa 0,0 l/m 0,0 km/h (0 Bft) SW 223 0 min 0,0 UV-I 0 W/m 5,4 C 6,4 C 0,0 km/h (0 Bft)
27.10.2022 01:57 6,3 C 4,4 C 94 % 1025,2 hPa 0,0 l/m 0,2 km/h (0 Bft) SW 223 0 min 0,0 UV-I 0 W/m 5,4 C 6,3 C 1,6 km/h (1 Bft)
27.10.2022 02:00 6,2 C 4,4 C 93 % 1025,3 hPa 0,0 l/m 0,4 km/h (0 Bft) SW 223 0 min 0,0 UV-I 0 W/m 5,2 C 6,2 C 1,6 km/h (1 Bft)
27.10.2022 02:03 6,2 C 3,9 C 94 % 1025,3 hPa 0,0 l/m 0,0 km/h (0 Bft) SW 223 0 min 0,0 UV-I 0 W/m 5,3 C 6,2 C 1,6 km/h (1 Bft)
27.10.2022 02:06 6,2 C 4,4 C 94 % 1025,2 hPa 0,0 l/m 0,2 km/h (0 Bft) SW 223 0 min 0,0 UV-I 0 W/m 5,3 C 6,2 C 1,6 km/h (1 Bft)
27.10.2022 02:09 6,3 C 4,4 C 94 % 1025,2 hPa 0,0 l/m 0,0 km/h (0 Bft) SW 223 0 min 0,0 UV-I 0 W/m 5,4 C 6,3 C 0,0 km/h (0 Bft)
27.10.2022 02:12 6,2 C 4,4 C 94 % 1025,2 hPa 0,0 l/m 0,8 km/h (0 Bft) SW 223 0 min 0,0 UV-I 0 W/m 5,3 C 6,2 C 1,6 km/h (1 Bft)
27.10.2022 02:15 6,2 C 4,4 C 94 % 1025,3 hPa 0,0 l/m 0,5 km/h (0 Bft) SW 223 0 min 0,0 UV-I 0 W/m 5,3 C 6,2 C 1,6 km/h (1 Bft)
27.10.2022 02:18 6,4 C 4,4 C 94 % 1025,2 hPa 0,0 l/m 0,0 km/h (0 Bft) SW 223 0 min 0,0 UV-I 0 W/m 5,5 C 6,4 C 0,0 km/h (0 Bft)
27.10.2022 02:21 6,4 C 5,0 C 94 % 1025,3 hPa 0,0 l/m 0,0 km/h (0 Bft) SW 223 0 min 0,0 UV-I 0 W/m 5,5 C 6,4 C 0,0 km/h (0 Bft)
27.10.2022 02:24 6,4 C 5,0 C 94 % 1025,3 hPa 0,0 l/m 0,0 km/h (0 Bft) SW 223 0 min 0,0 UV-I 0 W/m 5,5 C 6,4 C 0,0 km/h (0 Bft)
27.10.2022 02:27 6,3 C 5,0 C 94 % 1025,3 hPa 0,0 l/m 0,0 km/h (0 Bft) SW 223 0 min 0,0 UV-I 0 W/m 5,4 C 6,3 C 0,0 km/h (0 Bft)
27.10.2022 02:30 6,3 C 5,0 C 94 % 1025,3 hPa 0,0 l/m 0,0 km/h (0 Bft) SW 223 0 min 0,0 UV-I 0 W/m 5,4 C 6,3 C 0,0 km/h (0 Bft)
27.10.2022 02:33 6,3 C 5,0 C 94 % 1025,3 hPa 0,0 l/m 0,0 km/h (0 Bft) SW 223 0 min 0,0 UV-I 0 W/m 5,4 C 6,3 C 1,6 km/h (1 Bft)
27.10.2022 02:36 6,2 C 5,0 C 94 % 1025,3 hPa 0,0 l/m 0,2 km/h (0 Bft) SW 223 0 min 0,0 UV-I 0 W/m 5,3 C 6,2 C 1,6 km/h (1 Bft)
27.10.2022 02:39 6,1 C 5,0 C 94 % 1025,3 hPa 0,0 l/m 0,6 km/h (0 Bft) SW 223 0 min 0,0 UV-I 0 W/m 5,2 C 6,1 C 1,6 km/h (1 Bft)
27.10.2022 02:42 5,9 C 5,0 C 94 % 1025,4 hPa 0,0 l/m 0,1 km/h (0 Bft) SW 223 0 min 0,0 UV-I 0 W/m 5,0 C 5,9 C 1,6 km/h (1 Bft)
27.10.2022 02:45 5,9 C 5,0 C 94 % 1025,4 hPa 0,0 l/m 0,6 km/h (0 Bft) SW 223 0 min 0,0 UV-I 0 W/m 5,0 C 5,9 C 1,6 km/h (1 Bft)
27.10.2022 02:48 5,9 C 5,0 C 94 % 1025,4 hPa 0,0 l/m 0,5 km/h (0 Bft) SW 223 0 min 0,0 UV-I 0 W/m 5,0 C 5,9 C 3,2 km/h (1 Bft)
27.10.2022 02:51 5,9 C 5,0 C 94 % 1025,5 hPa 0,0 l/m 0,9 km/h (0 Bft) SW 223 0 min 0,0 UV-I 0 W/m 5,0 C 5,9 C 3,2 km/h (1 Bft)
27.10.2022 02:54 5,9 C 5,0 C 94 % 1025,4 hPa 0,0 l/m 0,5 km/h (0 Bft) SW 223 0 min 0,0 UV-I 0 W/m 5,0 C 5,9 C 1,6 km/h (1 Bft)
27.10.2022 02:57 5,9 C 5,0 C 94 % 1025,5 hPa 0,0 l/m 0,4 km/h (0 Bft) SW 223 0 min 0,0 UV-I 0 W/m 5,0 C 5,9 C 1,6 km/h (1 Bft)
27.10.2022 03:00 5,7 C 5,0 C 94 % 1025,5 hPa 0,0 l/m 0,0 km/h (0 Bft) SW 223 0 min 0,0 UV-I 0 W/m 4,8 C 5,7 C 0,0 km/h (0 Bft)
27.10.2022 03:03 5,6 C 4,4 C 94 % 1025,5 hPa 0,0 l/m 0,2 km/h (0 Bft) SW 223 0 min 0,0 UV-I 0 W/m 4,7 C 5,6 C 1,6 km/h (1 Bft)
27.10.2022 03:06 5,6 C 4,4 C 94 % 1025,6 hPa 0,0 l/m 0,2 km/h (0 Bft) SW 223 0 min 0,0 UV-I 0 W/m 4,7 C 5,6 C 1,6 km/h (1 Bft)
27.10.2022 03:09 5,6 C 4,4 C 94 % 1025,5 hPa 0,0 l/m 0,0 km/h (0 Bft) SW 223 0 min 0,0 UV-I 0 W/m 4,7 C 5,6 C 1,6 km/h (1 Bft)
27.10.2022 03:12 5,7 C 4,4 C 94 % 1025,6 hPa 0,0 l/m 2,1 km/h (1 Bft) SW 223 0 min 0,0 UV-I 0 W/m 4,8 C 5,7 C 3,2 km/h (1 Bft)
27.10.2022 03:15 5,6 C 4,4 C 94 % 1025,6 hPa 0,0 l/m 2,4 km/h (1 Bft) SW 223 0 min 0,0 UV-I 0 W/m 4,7 C 5,6 C 3,2 km/h (1 Bft)
27.10.2022 03:18 5,7 C 4,4 C 94 % 1025,5 hPa 0,0 l/m 1,8 km/h (1 Bft) SW 223 0 min 0,0 UV-I 0 W/m 4,8 C 5,7 C 3,2 km/h (1 Bft)
27.10.2022 03:21 5,7 C 4,4 C 94 % 1025,4 hPa 0,0 l/m 1,5 km/h (1 Bft) SW 223 0 min 0,0 UV-I 0 W/m 4,8 C 5,7 C 3,2 km/h (1 Bft)
27.10.2022 03:24 5,8 C 4,4 C 94 % 1025,4 hPa 0,0 l/m 3,2 km/h (1 Bft) SW 223 0 min 0,0 UV-I 0 W/m 4,9 C 5,8 C 4,8 km/h (1 Bft)
27.10.2022 03:27 5,8 C 4,4 C 94 % 1025,5 hPa 0,0 l/m 1,9 km/h (1 Bft) SW 223 0 min 0,0 UV-I 0 W/m 4,9 C 5,8 C 4,8 km/h (1 Bft)
27.10.2022 03:30 5,7 C 4,4 C 94 % 1025,5 hPa 0,0 l/m 0,0 km/h (0 Bft) SW 223 0 min 0,0 UV-I 0 W/m 4,8 C 5,7 C 0,0 km/h (0 Bft)
27.10.2022 03:33 5,8 C 4,4 C 94 % 1025,4 hPa 0,0 l/m 0,0 km/h (0 Bft) SW 223 0 min 0,0 UV-I 0 W/m 4,9 C 5,8 C 0,0 km/h (0 Bft)
27.10.2022 03:36 5,6 C 4,4 C 94 % 1025,4 hPa 0,0 l/m 0,4 km/h (0 Bft) SW 223 0 min 0,0 UV-I 0 W/m 4,7 C 5,6 C 3,2 km/h (1 Bft)
27.10.2022 03:39 5,5 C 4,4 C 94 % 1025,5 hPa 0,0 l/m 1,1 km/h (1 Bft) SW 223 0 min 0,0 UV-I 0 W/m 4,6 C 5,5 C 3,2 km/h (1 Bft)
27.10.2022 03:42 5,5 C 4,4 C 94 % 1025,5 hPa 0,0 l/m 0,4 km/h (0 Bft) SW 223 0 min 0,0 UV-I 0 W/m 4,6 C 5,5 C 1,6 km/h (1 Bft)
27.10.2022 03:45 5,7 C 4,4 C 94 % 1025,5 hPa 0,0 l/m 0,8 km/h (0 Bft) SW 223 0 min 0,0 UV-I 0 W/m 4,8 C 5,7 C 1,6 km/h (1 Bft)
27.10.2022 03:48 5,5 C 4,4 C 94 % 1025,6 hPa 0,0 l/m 0,1 km/h (0 Bft) SW 223 0 min 0,0 UV-I 0 W/m 4,6 C 5,5 C 1,6 km/h (1 Bft)
27.10.2022 03:51 5,7 C 4,4 C 94 % 1025,5 hPa 0,0 l/m 2,0 km/h (1 Bft) SW 223 0 min 0,0 UV-I 0 W/m 4,8 C 5,7 C 3,2 km/h (1 Bft)
27.10.2022 03:54 5,9 C 4,4 C 94 % 1025,6 hPa 0,0 l/m 2,7 km/h (1 Bft) SW 223 0 min 0,0 UV-I 0 W/m 5,0 C 5,9 C 4,8 km/h (1 Bft)
27.10.2022 03:57 5,8 C 4,4 C 94 % 1025,6 hPa 0,0 l/m 0,7 km/h (0 Bft) SW 223 0 min 0,0 UV-I 0 W/m 4,9 C 5,8 C 3,2 km/h (1 Bft)
27.10.2022 04:00 5,3 C 3,9 C 94 % 1025,6 hPa 0,0 l/m 0,4 km/h (0 Bft) SW 223 0 min 0,0 UV-I 0 W/m 4,4 C 5,3 C 1,6 km/h (1 Bft)
27.10.2022 04:03 5,2 C 3,9 C 94 % 1025,6 hPa 0,0 l/m 0,8 km/h (0 Bft) SW 223 0 min 0,0 UV-I 0 W/m 4,3 C 5,2 C 3,2 km/h (1 Bft)
27.10.2022 04:06 5,1 C 3,9 C 94 % 1025,6 hPa 0,0 l/m 0,0 km/h (0 Bft) SW 223 0 min 0,0 UV-I 0 W/m 4,2 C 5,1 C 1,6 km/h (1 Bft)
27.10.2022 04:09 5,1 C 3,3 C 94 % 1025,5 hPa 0,0 l/m 0,0 km/h (0 Bft) SW 223 0 min 0,0 UV-I 0 W/m 4,2 C 5,1 C 0,0 km/h (0 Bft)
27.10.2022 04:12 5,1 C 3,3 C 94 % 1025,4 hPa 0,0 l/m 0,0 km/h (0 Bft) SW 223 0 min 0,0 UV-I 0 W/m 4,2 C 5,1 C 0,0 km/h (0 Bft)
27.10.2022 04:15 5,3 C 3,3 C 94 % 1025,4 hPa 0,0 l/m 0,6 km/h (0 Bft) SW 223 0 min 0,0 UV-I 0 W/m 4,4 C 5,3 C 3,2 km/h (1 Bft)
27.10.2022 04:18 5,2 C 3,3 C 94 % 1025,4 hPa 0,0 l/m 0,0 km/h (0 Bft) SW 223 0 min 0,0 UV-I 0 W/m 4,3 C 5,2 C 1,6 km/h (1 Bft)
27.10.2022 04:21 5,1 C 3,3 C 94 % 1025,6 hPa 0,0 l/m 0,0 km/h (0 Bft) SW 223 0 min 0,0 UV-I 0 W/m 4,2 C 5,1 C 0,0 km/h (0 Bft)
27.10.2022 04:24 5,1 C 3,3 C 94 % 1025,6 hPa 0,0 l/m 0,1 km/h (0 Bft) SW 223 0 min 0,0 UV-I 0 W/m 4,2 C 5,1 C 1,6 km/h (1 Bft)
27.10.2022 04:27 5,2 C 3,3 C 94 % 1025,5 hPa 0,0 l/m 0,0 km/h (0 Bft) SW 223 0 min 0,0 UV-I 0 W/m 4,3 C 5,2 C 0,0 km/h (0 Bft)
27.10.2022 04:30 5,1 C 3,3 C 94 % 1025,5 hPa 0,0 l/m 0,0 km/h (0 Bft) SW 223 0 min 0,0 UV-I 0 W/m 4,2 C 5,1 C 0,0 km/h (0 Bft)
27.10.2022 04:33 4,9 C 3,3 C 94 % 1025,5 hPa 0,0 l/m 0,0 km/h (0 Bft) SW 223 0 min 0,0 UV-I 0 W/m 4,0 C 4,9 C 0,0 km/h (0 Bft)
27.10.2022 04:36 4,9 C 3,3 C 94 % 1025,4 hPa 0,0 l/m 0,0 km/h (0 Bft) SW 223 0 min 0,0 UV-I 0 W/m 4,0 C 4,9 C 0,0 km/h (0 Bft)
27.10.2022 04:39 5,1 C 3,3 C 94 % 1025,4 hPa 0,0 l/m 0,0 km/h (0 Bft) SW 223 0 min 0,0 UV-I 0 W/m 4,2 C 5,1 C 0,0 km/h (0 Bft)
27.10.2022 04:42 5,1 C 3,3 C 94 % 1025,4 hPa 0,0 l/m 0,0 km/h (0 Bft) SW 223 0 min 0,0 UV-I 0 W/m 4,2 C 5,1 C 0,0 km/h (0 Bft)
27.10.2022 04:45 5,1 C 3,3 C 94 % 1025,3 hPa 0,0 l/m 0,0 km/h (0 Bft) SW 223 0 min 0,0 UV-I 0 W/m 4,2 C 5,1 C 0,0 km/h (0 Bft)
27.10.2022 04:48 5,2 C 3,3 C 94 % 1025,4 hPa 0,0 l/m 0,0 km/h (0 Bft) SW 223 0 min 0,0 UV-I 0 W/m 4,3 C 5,2 C 0,0 km/h (0 Bft)
27.10.2022 04:51 5,1 C 3,3 C 94 % 1025,3 hPa 0,0 l/m 0,0 km/h (0 Bft) SW 223 0 min 0,0 UV-I 0 W/m 4,2 C 5,1 C 0,0 km/h (0 Bft)
27.10.2022 04:54 5,0 C 3,3 C 94 % 1025,2 hPa 0,0 l/m 0,0 km/h (0 Bft) SW 223 0 min 0,0 UV-I 0 W/m 4,1 C 5,0 C 1,6 km/h (1 Bft)
27.10.2022 04:57 4,9 C 3,3 C 94 % 1025,4 hPa 0,0 l/m 0,3 km/h (0 Bft) SW 223 0 min 0,0 UV-I 0 W/m 4,0 C 4,9 C 1,6 km/h (1 Bft)
27.10.2022 05:00 4,9 C 3,3 C 94 % 1025,2 hPa 0,0 l/m 0,0 km/h (0 Bft) SW 223 0 min 0,0 UV-I 0 W/m 4,0 C 4,9 C 0,0 km/h (0 Bft)
27.10.2022 05:03 4,9 C 3,3 C 94 % 1025,3 hPa 0,0 l/m 0,0 km/h (0 Bft) SW 223 0 min 0,0 UV-I 0 W/m 4,0 C 4,9 C 0,0 km/h (0 Bft)
27.10.2022 05:06 4,9 C 3,3 C 94 % 1025,3 hPa 0,0 l/m 0,0 km/h (0 Bft) SW 223 0 min 0,0 UV-I 0 W/m 4,0 C 4,9 C 0,0 km/h (0 Bft)
27.10.2022 05:09 4,8 C 3,3 C 94 % 1025,3 hPa 0,0 l/m 0,0 km/h (0 Bft) SW 223 0 min 0,0 UV-I 0 W/m 3,9 C 4,8 C 0,0 km/h (0 Bft)
27.10.2022 05:12 4,8 C 3,3 C 94 % 1025,3 hPa 0,0 l/m 0,0 km/h (0 Bft) SW 223 0 min 0,0 UV-I 0 W/m 3,9 C 4,8 C 0,0 km/h (0 Bft)
27.10.2022 05:15 5,0 C 3,3 C 94 % 1025,2 hPa 0,0 l/m 0,0 km/h (0 Bft) SW 223 0 min 0,0 UV-I 0 W/m 4,1 C 5,0 C 1,6 km/h (1 Bft)
27.10.2022 05:18 4,9 C 3,3 C 94 % 1025,1 hPa 0,0 l/m 0,0 km/h (0 Bft) SW 223 0 min 0,0 UV-I 0 W/m 4,0 C 4,9 C 0,0 km/h (0 Bft)
27.10.2022 05:21 4,8 C 3,3 C 94 % 1025,2 hPa 0,0 l/m 0,0 km/h (0 Bft) SW 223 0 min 0,0 UV-I 0 W/m 3,9 C 4,8 C 0,0 km/h (0 Bft)
27.10.2022 05:24 4,8 C 3,3 C 94 % 1025,2 hPa 0,0 l/m 0,0 km/h (0 Bft) SW 223 0 min 0,0 UV-I 0 W/m 3,9 C 4,8 C 0,0 km/h (0 Bft)
27.10.2022 05:27 4,8 C 3,3 C 94 % 1025,2 hPa 0,0 l/m 0,0 km/h (0 Bft) SW 223 0 min 0,0 UV-I 0 W/m 3,9 C 4,8 C 0,0 km/h (0 Bft)
27.10.2022 05:30 4,8 C 3,3 C 94 % 1025,2 hPa 0,0 l/m 0,0 km/h (0 Bft) SW 223 0 min 0,0 UV-I 0 W/m 3,9 C 4,8 C 0,0 km/h (0 Bft)
27.10.2022 05:33 4,8 C 3,3 C 94 % 1025,2 hPa 0,0 l/m 0,0 km/h (0 Bft) SW 223 0 min 0,0 UV-I 0 W/m 3,9 C 4,8 C 0,0 km/h (0 Bft)
27.10.2022 05:36 4,6 C 3,3 C 94 % 1025,2 hPa 0,0 l/m 0,0 km/h (0 Bft) SW 223 0 min 0,0 UV-I 0 W/m 3,7 C 4,6 C 0,0 km/h (0 Bft)
27.10.2022 05:39 4,6 C 3,3 C 94 % 1025,2 hPa 0,0 l/m 0,0 km/h (0 Bft) SW 223 0 min 0,0 UV-I 0 W/m 3,7 C 4,6 C 0,0 km/h (0 Bft)
27.10.2022 05:42 4,7 C 3,3 C 94 % 1025,1 hPa 0,0 l/m 0,0 km/h (0 Bft) SW 223 0 min 0,0 UV-I 0 W/m 3,8 C 4,7 C 0,0 km/h (0 Bft)
27.10.2022 05:45 4,7 C 3,3 C 94 % 1025,2 hPa 0,0 l/m 0,0 km/h (0 Bft) SW 223 0 min 0,0 UV-I 0 W/m 3,8 C 4,7 C 0,0 km/h (0 Bft)
27.10.2022 05:48 4,8 C 3,3 C 94 % 1025,3 hPa 0,0 l/m 0,0 km/h (0 Bft) SW 223 0 min 0,0 UV-I 0 W/m 3,9 C 4,8 C 0,0 km/h (0 Bft)
27.10.2022 05:51 4,7 C 3,3 C 94 % 1025,2 hPa 0,0 l/m 0,0 km/h (0 Bft) SW 223 0 min 0,0 UV-I 0 W/m 3,8 C 4,7 C 0,0 km/h (0 Bft)
27.10.2022 05:54 4,8 C 3,3 C 94 % 1025,2 hPa 0,0 l/m 0,0 km/h (0 Bft) SW 223 0 min 0,0 UV-I 0 W/m 3,9 C 4,8 C 0,0 km/h (0 Bft)
27.10.2022 05:57 4,8 C 3,3 C 94 % 1025,1 hPa 0,0 l/m 0,0 km/h (0 Bft) SW 223 0 min 0,0 UV-I 0 W/m 3,9 C 4,8 C 0,0 km/h (0 Bft)
27.10.2022 06:00 4,7 C 3,3 C 94 % 1025,2 hPa 0,0 l/m 0,0 km/h (0 Bft) SW 223 0 min 0,0 UV-I 0 W/m 3,8 C 4,7 C 0,0 km/h (0 Bft)
27.10.2022 06:03 4,7 C 3,3 C 94 % 1025,2 hPa 0,0 l/m 0,0 km/h (0 Bft) SW 223 0 min 0,0 UV-I 0 W/m 3,8 C 4,7 C 0,0 km/h (0 Bft)
27.10.2022 06:06 4,6 C 3,3 C 94 % 1025,2 hPa 0,0 l/m 0,0 km/h (0 Bft) SW 223 0 min 0,0 UV-I 0 W/m 3,7 C 4,6 C 0,0 km/h (0 Bft)
27.10.2022 06:09 4,6 C 3,3 C 94 % 1025,2 hPa 0,0 l/m 0,0 km/h (0 Bft) SW 223 0 min 0,0 UV-I 0 W/m 3,7 C 4,6 C 0,0 km/h (0 Bft)
27.10.2022 06:12 4,7 C 3,3 C 94 % 1025,1 hPa 0,0 l/m 0,0 km/h (0 Bft) SW 223 0 min 0,0 UV-I 0 W/m 3,8 C 4,7 C 0,0 km/h (0 Bft)
27.10.2022 06:15 4,8 C 3,3 C 95 % 1025,2 hPa 0,0 l/m 0,0 km/h (0 Bft) SW 223 0 min 0,0 UV-I 0 W/m 4,1 C 4,8 C 0,0 km/h (0 Bft)
27.10.2022 06:18 4,8 C 3,3 C 94 % 1025,3 hPa 0,0 l/m 0,0 km/h (0 Bft) SW 223 0 min 0,0 UV-I 0 W/m 3,9 C 4,8 C 0,0 km/h (0 Bft)
27.10.2022 06:21 4,7 C 3,3 C 94 % 1025,3 hPa 0,0 l/m 0,0 km/h (0 Bft) SW 223 0 min 0,0 UV-I 0 W/m 3,8 C 4,7 C 0,0 km/h (0 Bft)
27.10.2022 06:24 4,6 C 2,8 C 94 % 1025,3 hPa 0,0 l/m 0,0 km/h (0 Bft) SW 223 0 min 0,0 UV-I 0 W/m 3,7 C 4,6 C 0,0 km/h (0 Bft)
27.10.2022 06:27 4,6 C 2,8 C 94 % 1025,3 hPa 0,0 l/m 0,0 km/h (0 Bft) SW 223 0 min 0,0 UV-I 0 W/m 3,7 C 4,6 C 0,0 km/h (0 Bft)
27.10.2022 06:30 4,6 C 2,8 C 94 % 1025,3 hPa 0,0 l/m 0,0 km/h (0 Bft) SW 223 0 min 0,0 UV-I 0 W/m 3,7 C 4,6 C 0,0 km/h (0 Bft)
27.10.2022 06:33 4,6 C 2,8 C 94 % 1025,3 hPa 0,0 l/m 0,0 km/h (0 Bft) SW 223 0 min 0,0 UV-I 0 W/m 3,7 C 4,6 C 1,6 km/h (1 Bft)
27.10.2022 06:36 4,3 C 2,8 C 94 % 1025,2 hPa 0,0 l/m 1,5 km/h (1 Bft) SW 223 0 min 0,0 UV-I 0 W/m 3,4 C 4,3 C 3,2 km/h (1 Bft)
27.10.2022 06:39 4,2 C 3,3 C 94 % 1025,3 hPa 0,0 l/m 0,6 km/h (0 Bft) SW 223 0 min 0,0 UV-I 0 W/m 3,3 C 4,2 C 1,6 km/h (1 Bft)
27.10.2022 06:42 4,2 C 2,8 C 94 % 1025,2 hPa 0,0 l/m 0,4 km/h (0 Bft) SW 223 0 min 0,0 UV-I 0 W/m 3,3 C 4,2 C 1,6 km/h (1 Bft)
27.10.2022 06:45 4,3 C 2,8 C 94 % 1025,2 hPa 0,0 l/m 0,1 km/h (0 Bft) SW 223 0 min 0,0 UV-I 0 W/m 3,4 C 4,3 C 1,6 km/h (1 Bft)
27.10.2022 06:48 4,3 C 3,3 C 94 % 1025,2 hPa 0,0 l/m 0,0 km/h (0 Bft) SW 223 0 min 0,0 UV-I 0 W/m 3,4 C 4,3 C 0,0 km/h (0 Bft)
27.10.2022 06:51 4,3 C 2,8 C 94 % 1025,2 hPa 0,0 l/m 0,2 km/h (0 Bft) SW 223 0 min 0,0 UV-I 0 W/m 3,4 C 4,3 C 1,6 km/h (1 Bft)
27.10.2022 06:54 4,3 C 2,8 C 94 % 1025,2 hPa 0,0 l/m 0,3 km/h (0 Bft) SW 223 0 min 0,0 UV-I 0 W/m 3,4 C 4,3 C 1,6 km/h (1 Bft)
27.10.2022 06:57 4,1 C 3,3 C 94 % 1025,2 hPa 0,0 l/m 0,0 km/h (0 Bft) SW 223 0 min 0,0 UV-I 0 W/m 3,2 C 4,1 C 0,0 km/h (0 Bft)
27.10.2022 07:00 4,0 C 2,8 C 94 % 1025,2 hPa 0,0 l/m 0,0 km/h (0 Bft) SW 223 0 min 0,0 UV-I 0 W/m 3,1 C 4,0 C 0,0 km/h (0 Bft)
27.10.2022 07:01 4,0 C 2,8 C 94 % 1025,2 hPa 0,0 l/m 0,0 km/h (0 Bft) N 0 0 min 0,0 UV-I 0 W/m 3,1 C 4,0 C 0,0 km/h (0 Bft)
27.10.2022 07:09 4,1 C 2,8 C 94 % 1025,2 hPa 0,0 l/m 0,0 km/h (0 Bft) SW 223 0 min 0,0 UV-I 0 W/m 3,2 C 4,1 C 0,0 km/h (0 Bft)
27.10.2022 07:12 4,1 C 2,8 C 94 % 1025,1 hPa 0,0 l/m 0,0 km/h (0 Bft) SW 223 0 min 0,0 UV-I 0 W/m 3,2 C 4,1 C 0,0 km/h (0 Bft)
27.10.2022 07:15 4,1 C 2,8 C 95 % 1025,2 hPa 0,0 l/m 0,0 km/h (0 Bft) SW 223 0 min 0,0 UV-I 0 W/m 3,4 C 4,1 C 0,0 km/h (0 Bft)
27.10.2022 07:18 4,0 C 2,8 C 94 % 1025,1 hPa 0,0 l/m 0,0 km/h (0 Bft) SW 223 0 min 0,0 UV-I 0 W/m 3,1 C 4,0 C 0,0 km/h (0 Bft)
27.10.2022 07:21 4,0 C 2,8 C 94 % 1025,3 hPa 0,0 l/m 0,0 km/h (0 Bft) SW 223 0 min 0,0 UV-I 0 W/m 3,1 C 4,0 C 0,0 km/h (0 Bft)
27.10.2022 07:24 3,9 C 2,8 C 94 % 1025,2 hPa 0,0 l/m 0,0 km/h (0 Bft) SW 223 0 min 0,0 UV-I 0 W/m 3,0 C 3,9 C 0,0 km/h (0 Bft)
27.10.2022 07:27 4,1 C 2,8 C 94 % 1025,3 hPa 0,0 l/m 0,0 km/h (0 Bft) SW 223 0 min 0,0 UV-I 0 W/m 3,2 C 4,1 C 0,0 km/h (0 Bft)
27.10.2022 07:30 4,2 C 2,8 C 95 % 1025,3 hPa 0,0 l/m 0,0 km/h (0 Bft) SW 223 0 min 0,0 UV-I 0 W/m 3,5 C 4,2 C 0,0 km/h (0 Bft)
27.10.2022 07:33 4,4 C 2,8 C 95 % 1025,2 hPa 0,0 l/m 0,5 km/h (0 Bft) SW 223 0 min 0,0 UV-I 0 W/m 3,7 C 4,4 C 1,6 km/h (1 Bft)
27.10.2022 07:36 4,4 C 3,3 C 95 % 1025,2 hPa 0,0 l/m 1,1 km/h (1 Bft) SW 223 0 min 0,0 UV-I 0 W/m 3,7 C 4,4 C 3,2 km/h (1 Bft)
27.10.2022 07:39 4,2 C 3,3 C 94 % 1025,3 hPa 0,0 l/m 0,7 km/h (0 Bft) SW 223 0 min 0,0 UV-I 0 W/m 3,3 C 4,2 C 1,6 km/h (1 Bft)
27.10.2022 07:42 4,1 C 3,3 C 94 % 1025,3 hPa 0,0 l/m 0,1 km/h (0 Bft) SW 223 0 min 0,0 UV-I 0 W/m 3,2 C 4,1 C 1,6 km/h (1 Bft)
27.10.2022 07:45 3,9 C 3,3 C 94 % 1025,3 hPa 0,0 l/m 0,1 km/h (0 Bft) SW 223 0 min 0,0 UV-I 0 W/m 3,0 C 3,9 C 1,6 km/h (1 Bft)
27.10.2022 07:48 3,8 C 3,3 C 94 % 1025,2 hPa 0,0 l/m 0,4 km/h (0 Bft) SW 223 0 min 0,0 UV-I 0 W/m 2,9 C 3,8 C 1,6 km/h (1 Bft)
27.10.2022 07:51 3,8 C 2,8 C 94 % 1025,2 hPa 0,0 l/m 0,0 km/h (0 Bft) SW 223 0 min 0,0 UV-I 0 W/m 2,9 C 3,8 C 0,0 km/h (0 Bft)
27.10.2022 07:54 4,0 C 2,8 C 94 % 1025,3 hPa 0,0 l/m 0,0 km/h (0 Bft) SW 223 0 min 0,0 UV-I 0 W/m 3,1 C 4,0 C 0,0 km/h (0 Bft)
27.10.2022 07:57 4,0 C 2,8 C 94 % 1025,3 hPa 0,0 l/m 0,0 km/h (0 Bft) SW 223 0 min 0,0 UV-I 0 W/m 3,1 C 4,0 C 0,0 km/h (0 Bft)
27.10.2022 08:00 3,9 C 2,8 C 94 % 1025,3 hPa 0,0 l/m 0,8 km/h (0 Bft) SW 223 0 min 0,0 UV-I 0 W/m 3,0 C 3,9 C 1,6 km/h (1 Bft)
27.10.2022 08:03 4,0 C 2,8 C 94 % 1025,4 hPa 0,0 l/m 1,0 km/h (0 Bft) SW 223 0 min 0,0 UV-I 0 W/m 3,1 C 4,0 C 3,2 km/h (1 Bft)
27.10.2022 08:06 4,1 C 2,8 C 94 % 1025,3 hPa 0,0 l/m 0,4 km/h (0 Bft) SW 223 0 min 0,0 UV-I 0 W/m 3,2 C 4,1 C 1,6 km/h (1 Bft)
27.10.2022 08:09 3,9 C 2,8 C 94 % 1025,4 hPa 0,0 l/m 0,0 km/h (0 Bft) SW 223 0 min 0,0 UV-I 0 W/m 3,0 C 3,9 C 0,0 km/h (0 Bft)
27.10.2022 08:12 3,9 C 2,8 C 94 % 1025,3 hPa 0,0 l/m 0,0 km/h (0 Bft) SW 223 0 min 0,0 UV-I 0 W/m 3,0 C 3,9 C 0,0 km/h (0 Bft)
27.10.2022 08:15 3,8 C 2,8 C 94 % 1025,3 hPa 0,0 l/m 0,0 km/h (0 Bft) SW 223 0 min 0,0 UV-I 0 W/m 2,9 C 3,8 C 0,0 km/h (0 Bft)
27.10.2022 08:18 3,7 C 2,2 C 94 % 1025,4 hPa 0,0 l/m 0,0 km/h (0 Bft) SW 223 0 min 0,0 UV-I 3 W/m 2,8 C 3,7 C 0,0 km/h (0 Bft)
27.10.2022 08:21 3,7 C 2,2 C 94 % 1025,4 hPa 0,0 l/m 0,0 km/h (0 Bft) SW 223 0 min 0,0 UV-I 5 W/m 2,8 C 3,7 C 0,0 km/h (0 Bft)
27.10.2022 08:24 3,7 C 2,2 C 94 % 1025,3 hPa 0,0 l/m 0,0 km/h (0 Bft) SW 223 0 min 0,0 UV-I 7 W/m 2,8 C 3,7 C 0,0 km/h (0 Bft)
27.10.2022 08:27 3,8 C 2,2 C 94 % 1025,5 hPa 0,0 l/m 0,0 km/h (0 Bft) SW 223 0 min 0,0 UV-I 9 W/m 2,9 C 3,8 C 0,0 km/h (0 Bft)
27.10.2022 08:30 3,8 C 2,2 C 94 % 1025,5 hPa 0,0 l/m 0,0 km/h (0 Bft) SW 223 0 min 0,0 UV-I 11 W/m 2,9 C 3,8 C 0,0 km/h (0 Bft)
27.10.2022 08:33 3,7 C 2,2 C 94 % 1025,4 hPa 0,0 l/m 0,0 km/h (0 Bft) SW 223 0 min 0,0 UV-I 12 W/m 2,8 C 3,7 C 0,0 km/h (0 Bft)
27.10.2022 08:36 3,8 C 2,8 C 94 % 1025,4 hPa 0,0 l/m 0,0 km/h (0 Bft) SW 223 0 min 0,0 UV-I 13 W/m 2,9 C 3,8 C 0,0 km/h (0 Bft)
27.10.2022 08:39 3,8 C 2,2 C 94 % 1025,3 hPa 0,0 l/m 0,0 km/h (0 Bft) SW 223 0 min 0,0 UV-I 14 W/m 2,9 C 3,8 C 0,0 km/h (0 Bft)
27.10.2022 08:42 3,8 C 2,8 C 94 % 1025,4 hPa 0,0 l/m 0,0 km/h (0 Bft) SW 223 0 min 0,0 UV-I 17 W/m 2,9 C 3,8 C 1,6 km/h (1 Bft)
27.10.2022 08:45 3,8 C 2,8 C 94 % 1025,3 hPa 0,0 l/m 0,3 km/h (0 Bft) SW 223 0 min 0,0 UV-I 19 W/m 2,9 C 3,8 C 1,6 km/h (1 Bft)
27.10.2022 08:48 3,9 C 3,3 C 95 % 1025,3 hPa 0,0 l/m 1,2 km/h (1 Bft) SW 223 0 min 0,0 UV-I 22 W/m 3,2 C 3,9 C 3,2 km/h (1 Bft)
27.10.2022 08:51 3,9 C 3,3 C 95 % 1025,3 hPa 0,0 l/m 1,5 km/h (1 Bft) SW 223 0 min 0,0 UV-I 29 W/m 3,2 C 3,9 C 3,2 km/h (1 Bft)
27.10.2022 08:54 4,1 C 3,3 C 95 % 1025,4 hPa 0,0 l/m 0,8 km/h (0 Bft) SW 223 0 min 0,0 UV-I 29 W/m 3,4 C 4,1 C 3,2 km/h (1 Bft)
27.10.2022 08:57 3,9 C 3,3 C 95 % 1025,4 hPa 0,0 l/m 0,0 km/h (0 Bft) SW 223 0 min 0,0 UV-I 33 W/m 3,2 C 3,9 C 0,0 km/h (0 Bft)
27.10.2022 09:00 3,9 C 3,9 C 95 % 1025,3 hPa 0,0 l/m 0,2 km/h (0 Bft) SW 223 0 min 0,0 UV-I 36 W/m 3,2 C 3,9 C 1,6 km/h (1 Bft)
27.10.2022 09:03 4,2 C 3,9 C 95 % 1025,4 hPa 0,0 l/m 0,2 km/h (0 Bft) SW 223 0 min 0,0 UV-I 36 W/m 3,5 C 4,2 C 1,6 km/h (1 Bft)
27.10.2022 09:06 4,4 C 4,4 C 95 % 1025,4 hPa 0,0 l/m 0,5 km/h (0 Bft) SW 223 0 min 0,0 UV-I 37 W/m 3,7 C 4,4 C 1,6 km/h (1 Bft)
27.10.2022 09:09 4,5 C 5,0 C 95 % 1025,5 hPa 0,0 l/m 0,2 km/h (0 Bft) SW 223 0 min 0,0 UV-I 45 W/m 3,8 C 4,5 C 1,6 km/h (1 Bft)
27.10.2022 09:12 4,7 C 5,0 C 95 % 1025,5 hPa 0,0 l/m 0,2 km/h (0 Bft) SW 223 0 min 0,0 UV-I 44 W/m 4,0 C 4,7 C 1,6 km/h (1 Bft)
27.10.2022 09:15 4,6 C 5,0 C 95 % 1025,4 hPa 0,0 l/m 0,1 km/h (0 Bft) SW 223 0 min 0,0 UV-I 36 W/m 3,9 C 4,6 C 1,6 km/h (1 Bft)
27.10.2022 09:18 4,6 C 5,0 C 95 % 1025,4 hPa 0,0 l/m 0,0 km/h (0 Bft) SW 223 0 min 0,0 UV-I 42 W/m 3,9 C 4,6 C 1,6 km/h (1 Bft)
27.10.2022 09:21 4,8 C 5,6 C 95 % 1025,4 hPa 0,0 l/m 0,4 km/h (0 Bft) SW 223 0 min 0,0 UV-I 47 W/m 4,1 C 4,8 C 1,6 km/h (1 Bft)
27.10.2022 09:24 5,1 C 5,6 C 95 % 1025,3 hPa 0,0 l/m 0,0 km/h (0 Bft) SW 223 0 min 0,0 UV-I 49 W/m 4,4 C 5,1 C 1,6 km/h (1 Bft)
27.10.2022 09:27 5,3 C 6,1 C 95 % 1025,3 hPa 0,0 l/m 0,2 km/h (0 Bft) SW 223 0 min 0,0 UV-I 57 W/m 4,6 C 5,3 C 1,6 km/h (1 Bft)
27.10.2022 09:30 5,6 C 7,2 C 95 % 1025,4 hPa 0,0 l/m 0,5 km/h (0 Bft) SW 223 0 min 0,0 UV-I 51 W/m 4,9 C 5,6 C 3,2 km/h (1 Bft)
27.10.2022 09:33 5,8 C 7,8 C 95 % 1025,4 hPa 0,0 l/m 0,7 km/h (0 Bft) SW 223 0 min 0,0 UV-I 61 W/m 5,1 C 5,8 C 3,2 km/h (1 Bft)
27.10.2022 09:36 5,8 C 7,2 C 95 % 1025,4 hPa 0,0 l/m 1,1 km/h (1 Bft) SW 223 0 min 0,0 UV-I 96 W/m 5,1 C 5,8 C 3,2 km/h (1 Bft)
27.10.2022 09:39 6,1 C 7,2 C 95 % 1025,3 hPa 0,0 l/m 0,0 km/h (0 Bft) SW 223 0 min 0,0 UV-I 86 W/m 5,4 C 6,1 C 1,6 km/h (1 Bft)
27.10.2022 09:42 6,4 C 7,8 C 95 % 1025,4 hPa 0,0 l/m 0,0 km/h (0 Bft) SW 223 0 min 0,0 UV-I 57 W/m 5,7 C 6,4 C 0,0 km/h (0 Bft)
27.10.2022 09:45 6,6 C 7,8 C 95 % 1025,4 hPa 0,0 l/m 0,0 km/h (0 Bft) SW 223 0 min 0,0 UV-I 88 W/m 5,9 C 6,6 C 0,0 km/h (0 Bft)
27.10.2022 09:48 6,8 C 8,3 C 95 % 1025,4 hPa 0,0 l/m 0,0 km/h (0 Bft) SW 223 0 min 0,3 UV-I 65 W/m 6,1 C 6,8 C 0,0 km/h (0 Bft)
27.10.2022 09:51 7,1 C 8,9 C 95 % 1025,4 hPa 0,0 l/m 0,0 km/h (0 Bft) SW 223 0 min 0,5 UV-I 68 W/m 6,4 C 7,1 C 0,0 km/h (0 Bft)
27.10.2022 09:54 7,8 C 9,4 C 95 % 1025,4 hPa 0,0 l/m 3,7 km/h (1 Bft) SO 134 0 min 0,5 UV-I 70 W/m 7,0 C 7,8 C 9,7 km/h (2 Bft)
27.10.2022 09:57 7,4 C 9,4 C 95 % 1025,5 hPa 0,0 l/m 1,9 km/h (1 Bft) SO 134 0 min 0,5 UV-I 129 W/m 6,7 C 7,4 C 4,8 km/h (1 Bft)
27.10.2022 10:00 7,2 C 10,0 C 95 % 1025,3 hPa 0,0 l/m 1,5 km/h (1 Bft) SO 134 0 min 0,6 UV-I 145 W/m 6,5 C 7,2 C 3,2 km/h (1 Bft)
27.10.2022 10:03 7,3 C 9,4 C 95 % 1025,5 hPa 0,0 l/m 1,5 km/h (1 Bft) S-SO 165 0 min 0,6 UV-I 84 W/m 6,6 C 7,3 C 3,2 km/h (1 Bft)
27.10.2022 10:06 7,6 C 8,9 C 95 % 1025,4 hPa 0,0 l/m 2,3 km/h (1 Bft) S-SO 166 0 min 0,6 UV-I 137 W/m 6,9 C 7,6 C 6,4 km/h (2 Bft)
27.10.2022 10:09 8,1 C 8,9 C 95 % 1025,4 hPa 0,0 l/m 3,1 km/h (1 Bft) S-SO 167 0 min 0,7 UV-I 179 W/m 7,3 C 8,1 C 6,4 km/h (2 Bft)
27.10.2022 10:12 8,3 C 9,4 C 95 % 1025,4 hPa 0,0 l/m 1,5 km/h (1 Bft) S-SO 167 0 min 0,7 UV-I 131 W/m 7,5 C 8,3 C 4,8 km/h (1 Bft)
27.10.2022 10:15 8,3 C 9,4 C 95 % 1025,5 hPa 0,0 l/m 1,3 km/h (1 Bft) S-SO 166 0 min 0,7 UV-I 160 W/m 7,5 C 8,3 C 4,8 km/h (1 Bft)
27.10.2022 10:18 8,7 C 10,6 C 95 % 1025,4 hPa 0,0 l/m 1,3 km/h (1 Bft) O 98 0 min 0,7 UV-I 161 W/m 7,9 C 8,7 C 6,4 km/h (2 Bft)
27.10.2022 10:21 8,8 C 11,1 C 95 % 1025,5 hPa 0,0 l/m 3,8 km/h (1 Bft) NO 40 0 min 0,7 UV-I 175 W/m 8,0 C 8,8 C 6,4 km/h (2 Bft)
27.10.2022 10:24 9,3 C 11,7 C 95 % 1025,4 hPa 0,0 l/m 2,2 km/h (1 Bft) NO 39 0 min 0,8 UV-I 200 W/m 8,5 C 9,3 C 4,8 km/h (1 Bft)
27.10.2022 10:27 9,6 C 13,3 C 96 % 1025,5 hPa 0,0 l/m 2,0 km/h (1 Bft) SO 134 0 min 0,9 UV-I 199 W/m 9,0 C 9,6 C 6,4 km/h (2 Bft)
27.10.2022 10:30 9,7 C 13,9 C 95 % 1025,4 hPa 0,0 l/m 2,5 km/h (1 Bft) O 91 0 min 0,9 UV-I 227 W/m 8,9 C 9,7 C 6,4 km/h (2 Bft)
27.10.2022 10:33 10,2 C 14,4 C 95 % 1025,4 hPa 0,0 l/m 1,7 km/h (1 Bft) O 95 0 min 1,0 UV-I 239 W/m 9,4 C 10,2 C 4,8 km/h (1 Bft)
27.10.2022 10:36 10,7 C 13,9 C 95 % 1025,4 hPa 0,0 l/m 1,2 km/h (1 Bft) O 97 0 min 1,0 UV-I 250 W/m 9,9 C 10,7 C 3,2 km/h (1 Bft)
27.10.2022 10:39 11,9 C 15,6 C 95 % 1025,3 hPa 0,0 l/m 1,5 km/h (1 Bft) O-SO 106 0 min 1,0 UV-I 252 W/m 11,1 C 11,9 C 4,8 km/h (1 Bft)
27.10.2022 10:42 12,4 C 16,1 C 95 % 1025,4 hPa 0,0 l/m 0,3 km/h (0 Bft) O-SO 106 0 min 1,1 UV-I 256 W/m 11,6 C 12,4 C 1,6 km/h (1 Bft)
27.10.2022 10:45 13,0 C 17,2 C 94 % 1025,3 hPa 0,0 l/m 1,5 km/h (1 Bft) N-NW 333 0 min 1,1 UV-I 262 W/m 12,1 C 13,0 C 4,8 km/h (1 Bft)
27.10.2022 10:48 13,7 C 18,3 C 93 % 1025,3 hPa 0,0 l/m 3,3 km/h (1 Bft) SW 221 0 min 1,2 UV-I 270 W/m 12,6 C 13,7 C 6,4 km/h (2 Bft)
27.10.2022 10:51 13,1 C 17,2 C 89 % 1025,3 hPa 0,0 l/m 2,8 km/h (1 Bft) S-SW 193 0 min 1,2 UV-I 279 W/m 11,3 C 13,1 C 4,8 km/h (1 Bft)
27.10.2022 10:54 12,9 C 18,3 C 90 % 1025,2 hPa 0,0 l/m 2,7 km/h (1 Bft) S 184 0 min 1,2 UV-I 263 W/m 11,3 C 12,9 C 6,4 km/h (2 Bft)
27.10.2022 10:57 13,2 C 18,9 C 89 % 1025,2 hPa 0,0 l/m 1,6 km/h (1 Bft) S 183 0 min 1,2 UV-I 268 W/m 11,4 C 13,2 C 4,8 km/h (1 Bft)
27.10.2022 11:00 13,5 C 20,0 C 88 % 1025,2 hPa 0,0 l/m 2,0 km/h (1 Bft) SO 128 0 min 1,3 UV-I 288 W/m 11,6 C 13,5 C 6,4 km/h (2 Bft)
27.10.2022 11:03 14,3 C 20,6 C 87 % 1025,2 hPa 0,0 l/m 2,8 km/h (1 Bft) S-SO 164 0 min 1,3 UV-I 291 W/m 12,2 C 14,3 C 6,4 km/h (2 Bft)
27.10.2022 11:06 14,7 C 21,1 C 84 % 1025,1 hPa 0,0 l/m 4,2 km/h (1 Bft) S-SW 201 0 min 1,3 UV-I 298 W/m 12,0 C 14,7 C 9,7 km/h (2 Bft)
27.10.2022 11:09 15,2 C 20,0 C 83 % 1025,1 hPa 0,0 l/m 6,6 km/h (2 Bft) SO 136 3 min 1,4 UV-I 304 W/m 12,3 C 15,1 C 12,9 km/h (3 Bft)
27.10.2022 11:12 15,3 C 20,6 C 81 % 1025,1 hPa 0,0 l/m 7,5 km/h (2 Bft) SO 133 0 min 1,4 UV-I 293 W/m 12,1 C 14,7 C 14,5 km/h (3 Bft)
27.10.2022 11:15 15,6 C 20,0 C 80 % 1025,0 hPa 0,0 l/m 8,3 km/h (2 Bft) O-SO 105 0 min 1,4 UV-I 300 W/m 12,2 C 14,6 C 12,9 km/h (3 Bft)
27.10.2022 11:18 15,6 C 18,9 C 79 % 1025,1 hPa 0,0 l/m 8,5 km/h (2 Bft) SO 137 0 min 1,3 UV-I 258 W/m 12,0 C 14,5 C 19,3 km/h (3 Bft)
27.10.2022 11:21 15,6 C 18,9 C 79 % 1025,1 hPa 0,0 l/m 10,0 km/h (2 Bft) O-SO 119 0 min 1,4 UV-I 268 W/m 12,0 C 13,8 C 17,7 km/h (3 Bft)
27.10.2022 11:24 15,7 C 18,9 C 79 % 1024,9 hPa 0,0 l/m 13,5 km/h (3 Bft) SO 132 3 min 1,4 UV-I 303 W/m 12,1 C 12,5 C 20,9 km/h (4 Bft)
27.10.2022 11:27 15,9 C 19,4 C 78 % 1024,9 hPa 0,0 l/m 12,2 km/h (2 Bft) SO 140 3 min 1,5 UV-I 304 W/m 12,1 C 13,2 C 22,5 km/h (4 Bft)
27.10.2022 11:30 15,9 C 19,4 C 78 % 1024,9 hPa 0,0 l/m 9,9 km/h (2 Bft) SO 146 0 min 1,5 UV-I 291 W/m 12,1 C 14,2 C 20,9 km/h (4 Bft)
27.10.2022 11:33 16,0 C 19,4 C 78 % 1025,0 hPa 0,0 l/m 14,7 km/h (3 Bft) SO 134 3 min 1,5 UV-I 304 W/m 12,2 C 12,5 C 30,6 km/h (5 Bft)
27.10.2022 11:36 15,9 C 18,9 C 78 % 1024,9 hPa 0,0 l/m 13,5 km/h (3 Bft) SO 145 0 min 1,5 UV-I 281 W/m 12,1 C 12,8 C 19,3 km/h (3 Bft)
27.10.2022 11:39 16,1 C 20,0 C 78 % 1024,8 hPa 0,0 l/m 8,2 km/h (2 Bft) S-SO 161 3 min 1,6 UV-I 324 W/m 12,3 C 15,2 C 16,1 km/h (3 Bft)
27.10.2022 11:42 16,1 C 20,0 C 77 % 1024,8 hPa 0,0 l/m 16,0 km/h (3 Bft) S-SO 152 3 min 1,6 UV-I 326 W/m 12,1 C 12,2 C 25,7 km/h (4 Bft)
27.10.2022 11:45 16,2 C 20,0 C 78 % 1025,0 hPa 0,0 l/m 14,0 km/h (3 Bft) S-SO 160 3 min 1,7 UV-I 340 W/m 12,4 C 13,0 C 24,1 km/h (4 Bft)
27.10.2022 11:48 16,2 C 20,0 C 77 % 1024,9 hPa 0,0 l/m 14,7 km/h (3 Bft) S 169 3 min 1,7 UV-I 355 W/m 12,2 C 12,7 C 20,9 km/h (4 Bft)
27.10.2022 11:51 16,3 C 21,1 C 77 % 1024,8 hPa 0,0 l/m 13,9 km/h (3 Bft) SO 144 3 min 1,8 UV-I 368 W/m 12,3 C 13,1 C 22,5 km/h (4 Bft)
27.10.2022 11:54 16,3 C 20,6 C 77 % 1024,7 hPa 0,0 l/m 15,0 km/h (3 Bft) S-SO 159 3 min 1,8 UV-I 374 W/m 12,3 C 12,8 C 22,5 km/h (4 Bft)
27.10.2022 11:57 16,4 C 21,7 C 76 % 1024,9 hPa 0,0 l/m 12,3 km/h (3 Bft) S 171 3 min 1,8 UV-I 374 W/m 12,2 C 13,8 C 20,9 km/h (4 Bft)
27.10.2022 12:00 16,5 C 22,2 C 76 % 1024,8 hPa 0,0 l/m 10,8 km/h (2 Bft) SO 142 3 min 1,9 UV-I 382 W/m 12,3 C 14,5 C 17,7 km/h (3 Bft)
27.10.2022 12:03 16,6 C 22,2 C 75 % 1024,9 hPa 0,0 l/m 15,8 km/h (3 Bft) S-SO 150 3 min 1,9 UV-I 389 W/m 12,1 C 12,9 C 27,4 km/h (4 Bft)
27.10.2022 12:09 16,6 C 21,7 C 75 % 1024,9 hPa 0,0 l/m 14,0 km/h (3 Bft) SO 134 6 min 1,9 UV-I 391 W/m 12,1 C 13,4 C 25,7 km/h (4 Bft)
27.10.2022 12:12 16,8 C 22,2 C 75 % 1024,8 hPa 0,0 l/m 14,9 km/h (3 Bft) S 186 3 min 2,0 UV-I 403 W/m 12,3 C 13,4 C 22,5 km/h (4 Bft)
27.10.2022 12:15 16,8 C 22,2 C 74 % 1024,8 hPa 0,0 l/m 16,0 km/h (3 Bft) SO 144 3 min 2,0 UV-I 408 W/m 12,1 C 13,1 C 24,1 km/h (4 Bft)
27.10.2022 12:18 16,8 C 22,2 C 75 % 1024,7 hPa 0,0 l/m 15,4 km/h (3 Bft) SO 126 3 min 2,0 UV-I 409 W/m 12,3 C 13,3 C 22,5 km/h (4 Bft)
27.10.2022 12:21 17,1 C 22,8 C 74 % 1024,8 hPa 0,0 l/m 12,6 km/h (3 Bft) S-SO 161 3 min 2,0 UV-I 398 W/m 12,4 C 14,5 C 22,5 km/h (4 Bft)
27.10.2022 12:24 17,2 C 23,9 C 75 % 1024,7 hPa 0,0 l/m 11,5 km/h (2 Bft) SO 137 3 min 2,0 UV-I 394 W/m 12,7 C 15,0 C 17,7 km/h (3 Bft)
27.10.2022 12:27 17,2 C 23,3 C 74 % 1024,6 hPa 0,0 l/m 12,5 km/h (3 Bft) SO 146 3 min 2,1 UV-I 414 W/m 12,5 C 14,6 C 19,3 km/h (3 Bft)
27.10.2022 12:30 17,3 C 23,3 C 74 % 1024,7 hPa 0,0 l/m 10,4 km/h (2 Bft) O-SO 109 3 min 1,9 UV-I 379 W/m 12,6 C 15,5 C 17,7 km/h (3 Bft)
27.10.2022 12:33 17,3 C 22,2 C 73 % 1024,7 hPa 0,0 l/m 13,2 km/h (3 Bft) SO 139 3 min 1,9 UV-I 366 W/m 12,4 C 14,5 C 22,5 km/h (4 Bft)
27.10.2022 12:36 17,3 C 22,2 C 74 % 1024,7 hPa 0,0 l/m 9,5 km/h (2 Bft) O-SO 116 3 min 1,9 UV-I 343 W/m 12,6 C 15,9 C 16,1 km/h (3 Bft)
27.10.2022 12:39 17,3 C 21,7 C 74 % 1024,7 hPa 0,0 l/m 9,8 km/h (2 Bft) SO 140 3 min 1,8 UV-I 303 W/m 12,6 C 15,7 C 17,7 km/h (3 Bft)
27.10.2022 12:42 17,3 C 22,2 C 75 % 1024,5 hPa 0,0 l/m 10,5 km/h (2 Bft) O-SO 122 3 min 1,9 UV-I 336 W/m 12,8 C 15,5 C 17,7 km/h (3 Bft)
27.10.2022 12:45 17,5 C 23,9 C 75 % 1024,6 hPa 0,0 l/m 7,5 km/h (2 Bft) SO 128 3 min 2,0 UV-I 366 W/m 13,0 C 17,0 C 12,9 km/h (3 Bft)
27.10.2022 12:48 17,6 C 24,4 C 74 % 1024,5 hPa 0,0 l/m 9,7 km/h (2 Bft) O-SO 116 3 min 2,2 UV-I 416 W/m 12,9 C 16,1 C 14,5 km/h (3 Bft)
27.10.2022 12:51 17,6 C 25,0 C 74 % 1024,6 hPa 0,0 l/m 8,6 km/h (2 Bft) S-SO 147 3 min 2,2 UV-I 419 W/m 12,9 C 16,6 C 16,1 km/h (3 Bft)
27.10.2022 12:54 17,8 C 25,0 C 74 % 1024,6 hPa 0,0 l/m 9,8 km/h (2 Bft) S-SW 198 3 min 2,2 UV-I 429 W/m 13,1 C 16,3 C 16,1 km/h (3 Bft)
27.10.2022 12:57 17,9 C 25,6 C 75 % 1024,7 hPa 0,0 l/m 6,2 km/h (2 Bft) O-SO 119 3 min 2,2 UV-I 428 W/m 13,4 C 17,9 C 14,5 km/h (3 Bft)
27.10.2022 13:00 17,9 C 25,0 C 74 % 1024,5 hPa 0,0 l/m 7,9 km/h (2 Bft) SO 140 3 min 2,1 UV-I 392 W/m 13,2 C 17,2 C 14,5 km/h (3 Bft)
27.10.2022 13:03 18,0 C 25,6 C 74 % 1024,5 hPa 0,0 l/m 9,2 km/h (2 Bft) SO 128 3 min 2,2 UV-I 411 W/m 13,3 C 16,7 C 17,7 km/h (3 Bft)
27.10.2022 13:06 18,2 C 26,1 C 74 % 1024,4 hPa 0,0 l/m 6,5 km/h (2 Bft) SO 142 3 min 2,2 UV-I 411 W/m 13,5 C 18,2 C 12,9 km/h (3 Bft)
27.10.2022 13:09 18,3 C 27,2 C 74 % 1024,4 hPa 0,0 l/m 3,8 km/h (1 Bft) SO 142 3 min 2,2 UV-I 398 W/m 13,6 C 18,3 C 8,0 km/h (2 Bft)
27.10.2022 13:12 18,4 C 26,1 C 74 % 1024,4 hPa 0,0 l/m 6,8 km/h (2 Bft) SO 132 3 min 2,2 UV-I 407 W/m 13,7 C 18,2 C 16,1 km/h (3 Bft)
27.10.2022 13:15 18,3 C 25,6 C 74 % 1024,4 hPa 0,0 l/m 10,8 km/h (2 Bft) O-SO 117 3 min 2,2 UV-I 420 W/m 13,6 C 16,5 C 19,3 km/h (3 Bft)
27.10.2022 13:18 18,1 C 24,4 C 74 % 1024,3 hPa 0,0 l/m 12,0 km/h (2 Bft) O-SO 119 3 min 2,2 UV-I 419 W/m 13,4 C 15,8 C 17,7 km/h (3 Bft)
27.10.2022 13:21 18,1 C 24,4 C 74 % 1024,3 hPa 0,0 l/m 13,1 km/h (3 Bft) SO 136 3 min 2,2 UV-I 394 W/m 13,4 C 15,5 C 17,7 km/h (3 Bft)
27.10.2022 13:24 17,9 C 23,9 C 75 % 1024,2 hPa 0,0 l/m 10,1 km/h (2 Bft) SO 126 3 min 2,2 UV-I 396 W/m 13,4 C 16,3 C 17,7 km/h (3 Bft)
27.10.2022 13:27 18,2 C 24,4 C 74 % 1024,2 hPa 0,0 l/m 10,2 km/h (2 Bft) S 184 3 min 2,2 UV-I 419 W/m 13,5 C 16,6 C 16,1 km/h (3 Bft)
27.10.2022 13:30 18,4 C 24,4 C 75 % 1024,2 hPa 0,0 l/m 11,4 km/h (2 Bft) S-SO 165 3 min 2,2 UV-I 427 W/m 13,9 C 16,4 C 17,7 km/h (3 Bft)
27.10.2022 13:33 18,3 C 23,9 C 74 % 1024,2 hPa 0,0 l/m 11,7 km/h (2 Bft) SO 136 3 min 2,2 UV-I 419 W/m 13,6 C 16,2 C 14,5 km/h (3 Bft)
27.10.2022 13:36 18,3 C 25,0 C 75 % 1024,1 hPa 0,0 l/m 9,5 km/h (2 Bft) SO 129 3 min 2,2 UV-I 402 W/m 13,8 C 17,0 C 14,5 km/h (3 Bft)
27.10.2022 13:39 18,4 C 24,4 C 74 % 1024,2 hPa 0,0 l/m 11,3 km/h (2 Bft) O-SO 122 3 min 2,2 UV-I 404 W/m 13,7 C 16,4 C 17,7 km/h (3 Bft)
27.10.2022 13:42 18,3 C 23,9 C 74 % 1024,2 hPa 0,0 l/m 14,5 km/h (3 Bft) SO 140 3 min 2,2 UV-I 431 W/m 13,6 C 15,3 C 20,9 km/h (4 Bft)
27.10.2022 13:45 18,4 C 25,6 C 74 % 1024,1 hPa 0,0 l/m 11,5 km/h (2 Bft) SO 136 3 min 2,2 UV-I 433 W/m 13,7 C 16,4 C 19,3 km/h (3 Bft)
27.10.2022 13:48 18,5 C 25,0 C 74 % 1024,1 hPa 0,0 l/m 10,9 km/h (2 Bft) SO 130 3 min 2,2 UV-I 417 W/m 13,8 C 16,7 C 19,3 km/h (3 Bft)
27.10.2022 13:51 18,4 C 24,4 C 74 % 1024,0 hPa 0,0 l/m 13,4 km/h (3 Bft) O-SO 123 3 min 2,1 UV-I 384 W/m 13,7 C 15,8 C 22,5 km/h (4 Bft)
27.10.2022 13:54 18,3 C 22,8 C 74 % 1024,0 hPa 0,0 l/m 12,7 km/h (3 Bft) SO 131 3 min 1,9 UV-I 316 W/m 13,6 C 15,9 C 20,9 km/h (4 Bft)
27.10.2022 13:57 18,3 C 23,9 C 76 % 1024,0 hPa 0,0 l/m 8,7 km/h (2 Bft) S-SO 165 3 min 2,0 UV-I 386 W/m 14,0 C 17,3 C 14,5 km/h (3 Bft)
27.10.2022 14:00 18,4 C 24,4 C 75 % 1024,0 hPa 0,0 l/m 11,7 km/h (2 Bft) SO 128 3 min 2,2 UV-I 427 W/m 13,9 C 16,3 C 19,3 km/h (3 Bft)
27.10.2022 14:03 18,4 C 25,6 C 76 % 1023,9 hPa 0,0 l/m 10,3 km/h (2 Bft) SO 125 3 min 2,2 UV-I 431 W/m 14,1 C 16,8 C 22,5 km/h (4 Bft)
27.10.2022 14:06 18,3 C 24,4 C 74 % 1023,9 hPa 0,0 l/m 14,6 km/h (3 Bft) SO 128 3 min 2,2 UV-I 420 W/m 13,6 C 15,3 C 20,9 km/h (4 Bft)
27.10.2022 14:09 18,3 C 23,9 C 75 % 1024,0 hPa 0,0 l/m 12,6 km/h (3 Bft) SO 142 3 min 2,1 UV-I 390 W/m 13,8 C 15,9 C 22,5 km/h (4 Bft)
27.10.2022 14:12 18,4 C 24,4 C 75 % 1023,9 hPa 0,0 l/m 9,7 km/h (2 Bft) S-SO 150 3 min 2,0 UV-I 389 W/m 13,9 C 17,0 C 19,3 km/h (3 Bft)
27.10.2022 14:15 18,6 C 24,4 C 75 % 1023,8 hPa 0,0 l/m 10,1 km/h (2 Bft) SO 135 3 min 2,0 UV-I 383 W/m 14,1 C 17,1 C 17,7 km/h (3 Bft)
27.10.2022 14:18 18,5 C 22,8 C 73 % 1023,9 hPa 0,0 l/m 12,3 km/h (3 Bft) S-SO 167 0 min 1,8 UV-I 292 W/m 13,6 C 16,2 C 17,7 km/h (3 Bft)
27.10.2022 14:21 18,4 C 21,7 C 74 % 1023,9 hPa 0,0 l/m 15,1 km/h (3 Bft) S-SO 163 0 min 1,7 UV-I 293 W/m 13,7 C 15,3 C 24,1 km/h (4 Bft)
27.10.2022 14:24 18,4 C 22,8 C 74 % 1023,8 hPa 0,0 l/m 11,7 km/h (2 Bft) S-SO 154 3 min 1,8 UV-I 336 W/m 13,7 C 16,3 C 17,7 km/h (3 Bft)
27.10.2022 14:27 18,6 C 24,4 C 74 % 1023,8 hPa 0,0 l/m 8,7 km/h (2 Bft) SO 140 3 min 2,0 UV-I 420 W/m 13,9 C 17,6 C 14,5 km/h (3 Bft)
27.10.2022 14:30 18,8 C 25,0 C 73 % 1023,7 hPa 0,0 l/m 10,0 km/h (2 Bft) SO 138 3 min 2,0 UV-I 410 W/m 13,9 C 17,3 C 16,1 km/h (3 Bft)
27.10.2022 14:33 18,8 C 24,4 C 73 % 1023,8 hPa 0,0 l/m 12,2 km/h (2 Bft) S-SO 161 3 min 2,0 UV-I 406 W/m 13,9 C 16,6 C 19,3 km/h (3 Bft)
27.10.2022 14:36 18,6 C 23,9 C 73 % 1023,7 hPa 0,0 l/m 11,4 km/h (2 Bft) SO 144 3 min 1,9 UV-I 359 W/m 13,7 C 16,6 C 19,3 km/h (3 Bft)
27.10.2022 14:39 18,6 C 23,3 C 73 % 1023,6 hPa 0,0 l/m 9,8 km/h (2 Bft) S-SO 159 3 min 1,7 UV-I 303 W/m 13,7 C 17,2 C 17,7 km/h (3 Bft)
27.10.2022 14:42 18,6 C 23,3 C 73 % 1023,7 hPa 0,0 l/m 13,3 km/h (3 Bft) S 171 3 min 1,8 UV-I 358 W/m 13,7 C 16,0 C 19,3 km/h (3 Bft)
27.10.2022 14:45 18,7 C 23,9 C 74 % 1023,7 hPa 0,0 l/m 12,1 km/h (2 Bft) S 172 3 min 1,9 UV-I 417 W/m 14,0 C 16,5 C 19,3 km/h (3 Bft)
27.10.2022 14:48 18,8 C 23,9 C 73 % 1023,7 hPa 0,0 l/m 9,4 km/h (2 Bft) SO 146 3 min 1,7 UV-I 336 W/m 13,9 C 17,5 C 17,7 km/h (3 Bft)
27.10.2022 14:51 18,8 C 22,2 C 73 % 1023,7 hPa 0,0 l/m 12,6 km/h (3 Bft) SO 143 3 min 1,5 UV-I 324 W/m 13,9 C 16,5 C 20,9 km/h (4 Bft)
27.10.2022 14:54 18,4 C 20,6 C 73 % 1023,7 hPa 0,0 l/m 15,2 km/h (3 Bft) S 171 0 min 1,4 UV-I 200 W/m 13,5 C 15,3 C 24,1 km/h (4 Bft)
27.10.2022 14:57 18,3 C 20,0 C 74 % 1023,7 hPa 0,0 l/m 12,7 km/h (3 Bft) S 171 0 min 1,3 UV-I 207 W/m 13,6 C 15,9 C 19,3 km/h (3 Bft)
27.10.2022 15:00 18,1 C 19,4 C 74 % 1023,7 hPa 0,0 l/m 12,0 km/h (2 Bft) S-SO 163 0 min 1,2 UV-I 154 W/m 13,4 C 15,8 C 19,3 km/h (3 Bft)
27.10.2022 15:03 18,0 C 19,4 C 75 % 1023,6 hPa 0,0 l/m 14,7 km/h (3 Bft) SO 142 0 min 1,2 UV-I 182 W/m 13,5 C 14,9 C 20,9 km/h (4 Bft)
27.10.2022 15:06 17,9 C 19,4 C 75 % 1023,6 hPa 0,0 l/m 12,0 km/h (2 Bft) S 169 0 min 1,2 UV-I 185 W/m 13,4 C 15,6 C 19,3 km/h (3 Bft)
27.10.2022 15:09 17,9 C 18,9 C 75 % 1023,7 hPa 0,0 l/m 12,9 km/h (3 Bft) S-SW 194 0 min 1,2 UV-I 200 W/m 13,4 C 15,3 C 19,3 km/h (3 Bft)
27.10.2022 15:12 17,9 C 19,4 C 76 % 1023,6 hPa 0,0 l/m 12,9 km/h (3 Bft) SO 142 0 min 1,2 UV-I 187 W/m 13,6 C 15,3 C 24,1 km/h (4 Bft)
27.10.2022 15:15 17,9 C 19,4 C 76 % 1023,6 hPa 0,0 l/m 13,8 km/h (3 Bft) SO 131 0 min 1,3 UV-I 224 W/m 13,6 C 15,0 C 19,3 km/h (3 Bft)
27.10.2022 15:18 18,1 C 20,0 C 76 % 1023,6 hPa 0,0 l/m 8,0 km/h (2 Bft) S-SO 157 0 min 1,3 UV-I 245 W/m 13,8 C 17,4 C 12,9 km/h (3 Bft)
27.10.2022 15:21 18,1 C 19,4 C 76 % 1023,7 hPa 0,0 l/m 12,1 km/h (2 Bft) SO 145 0 min 1,2 UV-I 197 W/m 13,8 C 15,8 C 19,3 km/h (3 Bft)
27.10.2022 15:24 18,0 C 18,9 C 76 % 1023,5 hPa 0,0 l/m 12,5 km/h (3 Bft) S-SO 165 0 min 1,2 UV-I 182 W/m 13,7 C 15,6 C 19,3 km/h (3 Bft)
27.10.2022 15:27 17,9 C 18,9 C 77 % 1023,5 hPa 0,0 l/m 9,2 km/h (2 Bft) S-SO 155 0 min 1,0 UV-I 152 W/m 13,8 C 16,6 C 19,3 km/h (3 Bft)
27.10.2022 15:30 17,9 C 18,3 C 77 % 1023,5 hPa 0,0 l/m 8,8 km/h (2 Bft) S-SO 160 0 min 1,0 UV-I 138 W/m 13,8 C 16,8 C 16,1 km/h (3 Bft)
27.10.2022 15:33 17,8 C 18,3 C 77 % 1023,6 hPa 0,0 l/m 10,1 km/h (2 Bft) SO 144 0 min 0,9 UV-I 132 W/m 13,7 C 16,2 C 16,1 km/h (3 Bft)
27.10.2022 15:36 17,8 C 18,3 C 77 % 1023,6 hPa 0,0 l/m 12,2 km/h (2 Bft) S-SO 153 0 min 0,9 UV-I 141 W/m 13,7 C 15,4 C 16,1 km/h (3 Bft)
27.10.2022 15:39 17,8 C 18,9 C 77 % 1023,5 hPa 0,0 l/m 10,0 km/h (2 Bft) SO 142 0 min 0,9 UV-I 165 W/m 13,7 C 16,2 C 16,1 km/h (3 Bft)
27.10.2022 15:42 17,8 C 19,4 C 77 % 1023,5 hPa 0,0 l/m 10,0 km/h (2 Bft) SO 133 0 min 1,0 UV-I 196 W/m 13,7 C 16,2 C 16,1 km/h (3 Bft)
27.10.2022 15:45 17,8 C 19,4 C 77 % 1023,5 hPa 0,0 l/m 9,4 km/h (2 Bft) SO 139 0 min 1,0 UV-I 188 W/m 13,7 C 16,4 C 19,3 km/h (3 Bft)
27.10.2022 15:48 17,8 C 18,9 C 77 % 1023,5 hPa 0,0 l/m 10,4 km/h (2 Bft) S 169 0 min 1,0 UV-I 171 W/m 13,7 C 16,1 C 19,3 km/h (3 Bft)
27.10.2022 15:51 17,8 C 18,3 C 77 % 1023,5 hPa 0,0 l/m 13,0 km/h (3 Bft) SO 133 0 min 0,9 UV-I 158 W/m 13,7 C 15,2 C 22,5 km/h (4 Bft)
27.10.2022 15:54 17,7 C 17,8 C 77 % 1023,6 hPa 0,0 l/m 13,7 km/h (3 Bft) S-SO 161 0 min 0,8 UV-I 142 W/m 13,6 C 14,8 C 19,3 km/h (3 Bft)
27.10.2022 15:57 17,7 C 17,8 C 77 % 1023,5 hPa 0,0 l/m 11,8 km/h (2 Bft) SO 146 0 min 0,8 UV-I 125 W/m 13,6 C 15,4 C 22,5 km/h (4 Bft)
27.10.2022 16:00 17,6 C 17,8 C 77 % 1023,6 hPa 0,0 l/m 12,0 km/h (2 Bft) S-SO 167 0 min 0,7 UV-I 108 W/m 13,5 C 15,3 C 19,3 km/h (3 Bft)
27.10.2022 16:03 17,6 C 17,2 C 77 % 1023,5 hPa 0,0 l/m 12,3 km/h (3 Bft) S-SO 148 0 min 0,6 UV-I 92 W/m 13,5 C 15,2 C 17,7 km/h (3 Bft)
27.10.2022 16:06 17,5 C 17,2 C 78 % 1023,5 hPa 0,0 l/m 12,6 km/h (3 Bft) SO 134 0 min 0,6 UV-I 83 W/m 13,6 C 15,0 C 17,7 km/h (3 Bft)
27.10.2022 16:09 17,4 C 17,2 C 78 % 1023,5 hPa 0,0 l/m 13,2 km/h (3 Bft) S 175 0 min 0,6 UV-I 78 W/m 13,5 C 14,6 C 19,3 km/h (3 Bft)
27.10.2022 16:12 17,4 C 17,2 C 78 % 1023,6 hPa 0,0 l/m 12,4 km/h (3 Bft) S-SO 163 0 min 0,5 UV-I 73 W/m 13,5 C 14,9 C 17,7 km/h (3 Bft)
27.10.2022 16:15 17,3 C 16,7 C 78 % 1023,5 hPa 0,0 l/m 12,4 km/h (3 Bft) O-SO 113 0 min 0,5 UV-I 70 W/m 13,4 C 14,8 C 16,1 km/h (3 Bft)
27.10.2022 16:18 17,3 C 16,7 C 78 % 1023,6 hPa 0,0 l/m 11,1 km/h (2 Bft) S-SO 151 0 min 0,1 UV-I 67 W/m 13,4 C 15,2 C 17,7 km/h (3 Bft)
27.10.2022 16:21 17,3 C 16,7 C 79 % 1023,6 hPa 0,0 l/m 8,4 km/h (2 Bft) S-SO 167 0 min 0,0 UV-I 61 W/m 13,6 C 16,3 C 14,5 km/h (3 Bft)
27.10.2022 16:24 17,3 C 16,7 C 79 % 1023,7 hPa 0,0 l/m 8,9 km/h (2 Bft) S-SO 160 0 min 0,0 UV-I 56 W/m 13,6 C 16,1 C 12,9 km/h (3 Bft)
27.10.2022 16:27 17,3 C 16,7 C 79 % 1023,6 hPa 0,0 l/m 10,9 km/h (2 Bft) S 174 0 min 0,0 UV-I 62 W/m 13,6 C 15,3 C 16,1 km/h (3 Bft)
27.10.2022 16:30 17,3 C 17,2 C 79 % 1023,7 hPa 0,0 l/m 8,3 km/h (2 Bft) S-SO 159 0 min 0,0 UV-I 72 W/m 13,6 C 16,4 C 14,5 km/h (3 Bft)
27.10.2022 16:33 17,4 C 16,7 C 78 % 1023,7 hPa 0,0 l/m 14,1 km/h (3 Bft) SO 143 0 min 0,0 UV-I 72 W/m 13,5 C 14,4 C 29,0 km/h (5 Bft)
27.10.2022 16:36 17,3 C 16,7 C 79 % 1023,7 hPa 0,0 l/m 11,2 km/h (2 Bft) S-SO 153 0 min 0,0 UV-I 69 W/m 13,6 C 15,2 C 19,3 km/h (3 Bft)
27.10.2022 16:39 17,3 C 16,7 C 79 % 1023,7 hPa 0,0 l/m 8,2 km/h (2 Bft) SO 146 0 min 0,0 UV-I 66 W/m 13,6 C 16,4 C 17,7 km/h (3 Bft)
27.10.2022 16:42 17,3 C 16,7 C 79 % 1023,8 hPa 0,0 l/m 11,1 km/h (2 Bft) S-SO 160 0 min 0,0 UV-I 65 W/m 13,6 C 15,2 C 17,7 km/h (3 Bft)
27.10.2022 16:45 17,3 C 16,7 C 79 % 1023,7 hPa 0,0 l/m 13,6 km/h (3 Bft) SO 131 0 min 0,0 UV-I 66 W/m 13,6 C 14,4 C 24,1 km/h (4 Bft)
27.10.2022 16:48 17,3 C 16,7 C 79 % 1023,7 hPa 0,0 l/m 7,0 km/h (2 Bft) SO 140 0 min 0,0 UV-I 68 W/m 13,6 C 17,0 C 11,3 km/h (2 Bft)
27.10.2022 16:51 17,2 C 16,7 C 80 % 1023,6 hPa 0,0 l/m 5,6 km/h (1 Bft) SO 130 0 min 0,0 UV-I 70 W/m 13,7 C 17,2 C 12,9 km/h (3 Bft)
27.10.2022 16:54 17,2 C 16,7 C 80 % 1023,7 hPa 0,0 l/m 9,6 km/h (2 Bft) S-SO 148 0 min 0,0 UV-I 74 W/m 13,7 C 15,7 C 16,1 km/h (3 Bft)
27.10.2022 16:57 17,1 C 16,7 C 80 % 1023,6 hPa 0,0 l/m 10,6 km/h (2 Bft) S-SO 147 0 min 0,0 UV-I 76 W/m 13,6 C 15,2 C 16,1 km/h (3 Bft)
27.10.2022 17:00 17,1 C 16,7 C 80 % 1023,7 hPa 0,0 l/m 8,8 km/h (2 Bft) S-SO 147 0 min 0,0 UV-I 76 W/m 13,6 C 15,9 C 17,7 km/h (3 Bft)
27.10.2022 17:03 17,1 C 16,7 C 80 % 1023,7 hPa 0,0 l/m 11,3 km/h (2 Bft) SO 138 0 min 0,0 UV-I 74 W/m 13,6 C 14,9 C 16,1 km/h (3 Bft)
27.10.2022 17:06 17,1 C 16,7 C 81 % 1023,8 hPa 0,0 l/m 9,8 km/h (2 Bft) S-SO 148 0 min 0,0 UV-I 70 W/m 13,8 C 15,5 C 16,1 km/h (3 Bft)
27.10.2022 17:09 17,0 C 16,7 C 81 % 1023,7 hPa 0,0 l/m 11,6 km/h (2 Bft) S-SO 162 0 min 0,0 UV-I 66 W/m 13,7 C 14,7 C 16,1 km/h (3 Bft)
27.10.2022 17:12 17,0 C 16,7 C 81 % 1023,7 hPa 0,0 l/m 7,8 km/h (2 Bft) SO 138 0 min 0,0 UV-I 63 W/m 13,7 C 16,3 C 12,9 km/h (3 Bft)
27.10.2022 17:15 16,9 C 16,7 C 81 % 1023,8 hPa 0,0 l/m 10,1 km/h (2 Bft) SO 146 0 min 0,0 UV-I 60 W/m 13,6 C 15,2 C 16,1 km/h (3 Bft)
27.10.2022 17:18 16,9 C 16,7 C 82 % 1023,8 hPa 0,0 l/m 8,8 km/h (2 Bft) SO 140 0 min 0,0 UV-I 62 W/m 13,8 C 15,7 C 12,9 km/h (3 Bft)
27.10.2022 17:21 16,9 C 16,7 C 82 % 1023,8 hPa 0,0 l/m 10,5 km/h (2 Bft) S-SO 153 0 min 0,0 UV-I 69 W/m 13,8 C 15,0 C 22,5 km/h (4 Bft)
27.10.2022 17:24 17,0 C 16,7 C 81 % 1023,6 hPa 0,0 l/m 12,6 km/h (3 Bft) S-SO 148 0 min 0,0 UV-I 73 W/m 13,7 C 14,4 C 19,3 km/h (3 Bft)
27.10.2022 17:27 17,1 C 16,7 C 81 % 1023,7 hPa 0,0 l/m 11,2 km/h (2 Bft) S-SO 148 0 min 0,0 UV-I 71 W/m 13,8 C 15,0 C 16,1 km/h (3 Bft)
27.10.2022 17:30 17,0 C 16,7 C 82 % 1023,7 hPa 0,0 l/m 11,3 km/h (2 Bft) SO 124 0 min 0,0 UV-I 64 W/m 13,9 C 14,8 C 20,9 km/h (4 Bft)
27.10.2022 17:33 17,0 C 16,7 C 82 % 1023,8 hPa 0,0 l/m 12,8 km/h (3 Bft) S-SO 162 0 min 0,0 UV-I 59 W/m 13,9 C 14,3 C 17,7 km/h (3 Bft)
27.10.2022 17:36 16,9 C 16,1 C 82 % 1023,7 hPa 0,0 l/m 10,9 km/h (2 Bft) S 180 0 min 0,0 UV-I 53 W/m 13,8 C 14,9 C 17,7 km/h (3 Bft)
27.10.2022 17:39 16,9 C 16,1 C 82 % 1023,8 hPa 0,0 l/m 8,1 km/h (2 Bft) S-SO 148 0 min 0,0 UV-I 46 W/m 13,8 C 16,0 C 11,3 km/h (2 Bft)
27.10.2022 17:42 16,9 C 16,1 C 82 % 1023,7 hPa 0,0 l/m 8,6 km/h (2 Bft) S-SO 156 0 min 0,0 UV-I 34 W/m 13,8 C 15,8 C 16,1 km/h (3 Bft)
27.10.2022 17:45 16,9 C 16,1 C 82 % 1023,7 hPa 0,0 l/m 8,5 km/h (2 Bft) S-SO 167 0 min 0,0 UV-I 24 W/m 13,8 C 15,9 C 12,9 km/h (3 Bft)
27.10.2022 17:48 16,8 C 16,1 C 82 % 1023,7 hPa 0,0 l/m 10,0 km/h (2 Bft) SO 136 0 min 0,0 UV-I 18 W/m 13,7 C 15,1 C 16,1 km/h (3 Bft)
27.10.2022 17:51 16,8 C 16,1 C 82 % 1023,8 hPa 0,0 l/m 11,4 km/h (2 Bft) S 169 0 min 0,0 UV-I 15 W/m 13,7 C 14,6 C 17,7 km/h (3 Bft)
27.10.2022 17:54 16,8 C 16,1 C 82 % 1023,8 hPa 0,0 l/m 13,6 km/h (3 Bft) S-SO 155 0 min 0,0 UV-I 12 W/m 13,7 C 13,8 C 19,3 km/h (3 Bft)
27.10.2022 17:57 16,8 C 16,1 C 82 % 1023,8 hPa 0,0 l/m 12,9 km/h (3 Bft) SO 139 0 min 0,0 UV-I 11 W/m 13,7 C 14,0 C 20,9 km/h (4 Bft)
27.10.2022 18:00 16,8 C 16,1 C 82 % 1023,6 hPa 0,0 l/m 11,9 km/h (2 Bft) SO 132 0 min 0,0 UV-I 9 W/m 13,7 C 14,4 C 20,9 km/h (4 Bft)
27.10.2022 18:03 16,8 C 16,1 C 82 % 1023,7 hPa 0,0 l/m 13,3 km/h (3 Bft) S-SO 165 0 min 0,0 UV-I 9 W/m 13,7 C 13,9 C 19,3 km/h (3 Bft)
27.10.2022 18:06 16,8 C 16,1 C 82 % 1023,7 hPa 0,0 l/m 11,4 km/h (2 Bft) S 171 0 min 0,0 UV-I 8 W/m 13,7 C 14,6 C 17,7 km/h (3 Bft)
27.10.2022 18:09 16,8 C 16,1 C 82 % 1023,8 hPa 0,0 l/m 11,0 km/h (2 Bft) S-SO 150 0 min 0,0 UV-I 5 W/m 13,7 C 14,7 C 17,7 km/h (3 Bft)
27.10.2022 18:12 16,7 C 16,1 C 82 % 1023,9 hPa 0,0 l/m 11,7 km/h (2 Bft) SO 142 0 min 0,0 UV-I 2 W/m 13,6 C 14,3 C 19,3 km/h (3 Bft)
27.10.2022 18:15 16,8 C 16,1 C 82 % 1024,0 hPa 0,0 l/m 10,5 km/h (2 Bft) S-SO 148 0 min 0,0 UV-I 0 W/m 13,7 C 14,9 C 20,9 km/h (4 Bft)
27.10.2022 18:18 16,8 C 16,1 C 82 % 1023,9 hPa 0,0 l/m 12,3 km/h (3 Bft) S-SO 149 0 min 0,0 UV-I 0 W/m 13,7 C 14,2 C 22,5 km/h (4 Bft)
27.10.2022 18:21 16,8 C 16,1 C 82 % 1023,9 hPa 0,0 l/m 10,3 km/h (2 Bft) S-SO 148 0 min 0,0 UV-I 0 W/m 13,7 C 15,0 C 19,3 km/h (3 Bft)
27.10.2022 18:24 16,8 C 16,1 C 82 % 1023,9 hPa 0,0 l/m 11,6 km/h (2 Bft) SO 141 0 min 0,0 UV-I 0 W/m 13,7 C 14,5 C 19,3 km/h (3 Bft)
27.10.2022 18:27 16,7 C 16,1 C 83 % 1023,9 hPa 0,0 l/m 9,1 km/h (2 Bft) SO 146 0 min 0,0 UV-I 0 W/m 13,8 C 15,4 C 17,7 km/h (3 Bft)
27.10.2022 18:30 16,7 C 16,1 C 83 % 1023,9 hPa 0,0 l/m 10,5 km/h (2 Bft) S-SO 155 0 min 0,0 UV-I 0 W/m 13,8 C 14,8 C 19,3 km/h (3 Bft)
27.10.2022 18:33 16,7 C 16,1 C 83 % 1023,8 hPa 0,0 l/m 10,1 km/h (2 Bft) SO 133 0 min 0,0 UV-I 0 W/m 13,8 C 15,0 C 17,7 km/h (3 Bft)
27.10.2022 18:36 16,7 C 16,1 C 83 % 1023,9 hPa 0,0 l/m 11,1 km/h (2 Bft) S-SO 147 0 min 0,0 UV-I 0 W/m 13,8 C 14,6 C 19,3 km/h (3 Bft)
27.10.2022 18:39 16,7 C 16,1 C 82 % 1023,9 hPa 0,0 l/m 10,4 km/h (2 Bft) S-SO 157 0 min 0,0 UV-I 0 W/m 13,6 C 14,8 C 22,5 km/h (4 Bft)
27.10.2022 18:42 16,7 C 15,6 C 83 % 1023,9 hPa 0,0 l/m 9,3 km/h (2 Bft) S 174 0 min 0,0 UV-I 0 W/m 13,8 C 15,3 C 16,1 km/h (3 Bft)
27.10.2022 18:45 16,7 C 15,6 C 83 % 1024,0 hPa 0,0 l/m 11,3 km/h (2 Bft) SO 141 0 min 0,0 UV-I 0 W/m 13,8 C 14,5 C 17,7 km/h (3 Bft)
27.10.2022 18:48 16,7 C 16,1 C 83 % 1023,9 hPa 0,0 l/m 9,6 km/h (2 Bft) S-SO 163 0 min 0,0 UV-I 0 W/m 13,8 C 15,2 C 16,1 km/h (3 Bft)
27.10.2022 18:51 16,8 C 16,1 C 82 % 1023,9 hPa 0,0 l/m 8,2 km/h (2 Bft) S 173 0 min 0,0 UV-I 0 W/m 13,7 C 15,9 C 14,5 km/h (3 Bft)
27.10.2022 18:54 16,8 C 16,1 C 82 % 1023,8 hPa 0,0 l/m 7,9 km/h (2 Bft) S 174 0 min 0,0 UV-I 0 W/m 13,7 C 16,0 C 16,1 km/h (3 Bft)
27.10.2022 18:57 16,7 C 15,6 C 83 % 1023,9 hPa 0,0 l/m 7,5 km/h (2 Bft) S-SO 153 0 min 0,0 UV-I 0 W/m 13,8 C 16,1 C 11,3 km/h (2 Bft)
27.10.2022 19:00 16,7 C 15,6 C 83 % 1024,0 hPa 0,0 l/m 10,8 km/h (2 Bft) S-SO 161 0 min 0,0 UV-I 0 W/m 13,8 C 14,7 C 16,1 km/h (3 Bft)
27.10.2022 19:03 16,7 C 15,6 C 83 % 1023,9 hPa 0,0 l/m 7,4 km/h (2 Bft) S-SO 167 0 min 0,0 UV-I 0 W/m 13,8 C 16,2 C 12,9 km/h (3 Bft)
27.10.2022 19:06 16,6 C 15,6 C 83 % 1024,0 hPa 0,0 l/m 7,5 km/h (2 Bft) S-SO 157 0 min 0,0 UV-I 0 W/m 13,7 C 16,0 C 14,5 km/h (3 Bft)
27.10.2022 19:09 16,6 C 15,6 C 83 % 1023,8 hPa 0,0 l/m 10,3 km/h (2 Bft) S-SW 194 0 min 0,0 UV-I 0 W/m 13,7 C 14,8 C 16,1 km/h (3 Bft)
27.10.2022 19:12 16,6 C 15,6 C 83 % 1023,8 hPa 0,0 l/m 9,9 km/h (2 Bft) S 180 0 min 0,0 UV-I 0 W/m 13,7 C 14,9 C 14,5 km/h (3 Bft)
27.10.2022 19:15 16,6 C 15,6 C 83 % 1023,8 hPa 0,0 l/m 10,8 km/h (2 Bft) S 169 0 min 0,0 UV-I 0 W/m 13,7 C 14,6 C 14,5 km/h (3 Bft)
27.10.2022 19:18 16,6 C 15,6 C 83 % 1023,9 hPa 0,0 l/m 9,6 km/h (2 Bft) SO 144 0 min 0,0 UV-I 0 W/m 13,7 C 15,1 C 14,5 km/h (3 Bft)
27.10.2022 19:21 16,6 C 15,0 C 83 % 1023,9 hPa 0,0 l/m 10,0 km/h (2 Bft) SO 146 0 min 0,0 UV-I 0 W/m 13,7 C 14,9 C 17,7 km/h (3 Bft)
27.10.2022 19:24 16,6 C 15,0 C 84 % 1023,8 hPa 0,0 l/m 9,3 km/h (2 Bft) S-SO 157 0 min 0,0 UV-I 0 W/m 13,9 C 15,2 C 16,1 km/h (3 Bft)
27.10.2022 19:27 16,4 C 15,0 C 84 % 1023,9 hPa 0,0 l/m 5,8 km/h (2 Bft) SO 146 0 min 0,0 UV-I 0 W/m 13,7 C 16,4 C 11,3 km/h (2 Bft)
27.10.2022 19:30 16,4 C 15,0 C 84 % 1023,9 hPa 0,0 l/m 5,8 km/h (2 Bft) S 177 0 min 0,0 UV-I 0 W/m 13,7 C 16,4 C 11,3 km/h (2 Bft)
27.10.2022 19:33 16,3 C 14,4 C 84 % 1023,9 hPa 0,0 l/m 5,0 km/h (1 Bft) S-SO 161 0 min 0,0 UV-I 0 W/m 13,6 C 16,3 C 9,7 km/h (2 Bft)
27.10.2022 19:36 16,3 C 14,4 C 84 % 1023,9 hPa 0,0 l/m 4,9 km/h (1 Bft) S-SO 153 0 min 0,0 UV-I 0 W/m 13,6 C 16,3 C 8,0 km/h (2 Bft)
27.10.2022 19:39 16,3 C 14,4 C 84 % 1023,9 hPa 0,0 l/m 4,7 km/h (1 Bft) S 190 0 min 0,0 UV-I 0 W/m 13,6 C 16,3 C 9,7 km/h (2 Bft)
27.10.2022 19:42 16,2 C 13,9 C 85 % 1023,8 hPa 0,0 l/m 5,1 km/h (1 Bft) S-SO 164 0 min 0,0 UV-I 0 W/m 13,7 C 16,2 C 12,9 km/h (3 Bft)
27.10.2022 19:45 16,2 C 13,9 C 85 % 1023,9 hPa 0,0 l/m 4,9 km/h (1 Bft) S-SO 163 0 min 0,0 UV-I 0 W/m 13,7 C 16,2 C 8,0 km/h (2 Bft)
27.10.2022 19:48 16,2 C 13,9 C 85 % 1023,7 hPa 0,0 l/m 6,3 km/h (2 Bft) S 175 0 min 0,0 UV-I 0 W/m 13,7 C 16,2 C 11,3 km/h (2 Bft)
27.10.2022 19:51 16,1 C 13,9 C 84 % 1023,9 hPa 0,0 l/m 3,9 km/h (1 Bft) S 176 0 min 0,0 UV-I 0 W/m 13,4 C 16,1 C 9,7 km/h (2 Bft)
27.10.2022 19:54 15,9 C 13,9 C 85 % 1023,8 hPa 0,0 l/m 6,0 km/h (2 Bft) S 177 0 min 0,0 UV-I 0 W/m 13,4 C 15,9 C 9,7 km/h (2 Bft)
27.10.2022 19:57 15,9 C 13,9 C 86 % 1023,9 hPa 0,0 l/m 4,3 km/h (1 Bft) S 184 0 min 0,0 UV-I 0 W/m 13,6 C 15,9 C 6,4 km/h (2 Bft)
27.10.2022 20:00 15,9 C 13,3 C 85 % 1023,9 hPa 0,0 l/m 5,4 km/h (1 Bft) S 185 0 min 0,0 UV-I 0 W/m 13,4 C 15,9 C 11,3 km/h (2 Bft)
27.10.2022 20:03 15,8 C 13,3 C 85 % 1024,0 hPa 0,0 l/m 5,6 km/h (1 Bft) S 188 0 min 0,0 UV-I 0 W/m 13,3 C 15,8 C 8,0 km/h (2 Bft)
27.10.2022 20:06 15,8 C 13,3 C 86 % 1024,0 hPa 0,0 l/m 5,6 km/h (1 Bft) S 186 0 min 0,0 UV-I 0 W/m 13,5 C 15,8 C 8,0 km/h (2 Bft)
27.10.2022 20:09 15,7 C 13,3 C 86 % 1023,9 hPa 0,0 l/m 4,3 km/h (1 Bft) S 178 0 min 0,0 UV-I 0 W/m 13,4 C 15,7 C 6,4 km/h (2 Bft)
27.10.2022 20:12 15,7 C 13,3 C 86 % 1023,9 hPa 0,0 l/m 3,4 km/h (1 Bft) S-SW 192 0 min 0,0 UV-I 0 W/m 13,4 C 15,7 C 6,4 km/h (2 Bft)
27.10.2022 20:15 15,8 C 12,8 C 86 % 1023,9 hPa 0,0 l/m 4,8 km/h (1 Bft) S-SW 192 0 min 0,0 UV-I 0 W/m 13,5 C 15,8 C 6,4 km/h (2 Bft)
27.10.2022 20:18 15,7 C 12,8 C 86 % 1024,1 hPa 0,0 l/m 5,3 km/h (1 Bft) S 189 0 min 0,0 UV-I 0 W/m 13,4 C 15,7 C 8,0 km/h (2 Bft)
27.10.2022 20:21 15,7 C 12,8 C 86 % 1024,1 hPa 0,0 l/m 3,2 km/h (1 Bft) S 189 0 min 0,0 UV-I 0 W/m 13,4 C 15,7 C 6,4 km/h (2 Bft)
27.10.2022 20:24 15,7 C 12,8 C 86 % 1024,1 hPa 0,0 l/m 3,0 km/h (1 Bft) S 189 0 min 0,0 UV-I 0 W/m 13,4 C 15,7 C 4,8 km/h (1 Bft)
27.10.2022 20:27 15,7 C 12,8 C 86 % 1024,0 hPa 0,0 l/m 2,8 km/h (1 Bft) S 190 0 min 0,0 UV-I 0 W/m 13,4 C 15,7 C 4,8 km/h (1 Bft)
27.10.2022 20:30 15,7 C 12,8 C 87 % 1024,0 hPa 0,0 l/m 3,5 km/h (1 Bft) S 190 0 min 0,0 UV-I 0 W/m 13,5 C 15,7 C 6,4 km/h (2 Bft)
27.10.2022 20:33 15,6 C 12,2 C 87 % 1024,1 hPa 0,0 l/m 2,1 km/h (1 Bft) S 190 0 min 0,0 UV-I 0 W/m 13,4 C 15,6 C 4,8 km/h (1 Bft)
27.10.2022 20:36 15,5 C 12,2 C 87 % 1024,2 hPa 0,0 l/m 2,6 km/h (1 Bft) S 190 0 min 0,0 UV-I 0 W/m 13,3 C 15,5 C 6,4 km/h (2 Bft)
27.10.2022 20:39 15,4 C 12,2 C 87 % 1024,0 hPa 0,0 l/m 1,7 km/h (1 Bft) S 190 0 min 0,0 UV-I 0 W/m 13,2 C 15,4 C 4,8 km/h (1 Bft)
27.10.2022 20:42 15,6 C 12,8 C 87 % 1024,0 hPa 0,0 l/m 4,3 km/h (1 Bft) S-SO 167 0 min 0,0 UV-I 0 W/m 13,4 C 15,6 C 8,0 km/h (2 Bft)
27.10.2022 20:45 15,6 C 12,8 C 87 % 1023,9 hPa 0,0 l/m 4,1 km/h (1 Bft) S-SO 167 0 min 0,0 UV-I 0 W/m 13,4 C 15,6 C 6,4 km/h (2 Bft)
27.10.2022 20:48 15,7 C 12,2 C 87 % 1024,0 hPa 0,0 l/m 1,1 km/h (1 Bft) S-SO 167 0 min 0,0 UV-I 0 W/m 13,5 C 15,7 C 4,8 km/h (1 Bft)
27.10.2022 20:51 15,5 C 12,2 C 87 % 1023,9 hPa 0,0 l/m 3,2 km/h (1 Bft) S-SO 167 0 min 0,0 UV-I 0 W/m 13,3 C 15,5 C 6,4 km/h (2 Bft)
27.10.2022 20:54 15,6 C 12,2 C 87 % 1023,9 hPa 0,0 l/m 3,8 km/h (1 Bft) S-SO 158 0 min 0,0 UV-I 0 W/m 13,4 C 15,6 C 9,7 km/h (2 Bft)
27.10.2022 20:57 15,6 C 12,8 C 87 % 1023,9 hPa 0,0 l/m 3,6 km/h (1 Bft) SO 143 0 min 0,0 UV-I 0 W/m 13,4 C 15,6 C 6,4 km/h (2 Bft)
27.10.2022 21:00 15,6 C 12,8 C 87 % 1023,9 hPa 0,0 l/m 4,9 km/h (1 Bft) S-SO 149 0 min 0,0 UV-I 0 W/m 13,4 C 15,6 C 11,3 km/h (2 Bft)
27.10.2022 21:03 15,6 C 12,8 C 87 % 1023,9 hPa 0,0 l/m 3,9 km/h (1 Bft) SO 131 0 min 0,0 UV-I 0 W/m 13,4 C 15,6 C 14,5 km/h (3 Bft)
27.10.2022 21:06 15,5 C 12,8 C 87 % 1023,9 hPa 0,0 l/m 6,8 km/h (2 Bft) S 173 0 min 0,0 UV-I 0 W/m 13,3 C 15,3 C 16,1 km/h (3 Bft)
27.10.2022 21:09 15,5 C 13,3 C 87 % 1024,0 hPa 0,0 l/m 7,0 km/h (2 Bft) S-SO 162 0 min 0,0 UV-I 0 W/m 13,3 C 15,2 C 12,9 km/h (3 Bft)
27.10.2022 21:12 15,6 C 13,3 C 87 % 1024,1 hPa 0,0 l/m 6,6 km/h (2 Bft) S-SO 155 0 min 0,0 UV-I 0 W/m 13,4 C 15,5 C 9,7 km/h (2 Bft)
27.10.2022 21:15 15,6 C 13,3 C 87 % 1024,1 hPa 0,0 l/m 6,9 km/h (2 Bft) S 181 0 min 0,0 UV-I 0 W/m 13,4 C 15,3 C 11,3 km/h (2 Bft)
27.10.2022 21:18 15,8 C 13,9 C 87 % 1024,1 hPa 0,0 l/m 9,4 km/h (2 Bft) SW 215 0 min 0,0 UV-I 0 W/m 13,6 C 14,3 C 17,7 km/h (3 Bft)
27.10.2022 21:21 15,9 C 14,4 C 86 % 1024,1 hPa 0,0 l/m 7,9 km/h (2 Bft) S 174 0 min 0,0 UV-I 0 W/m 13,6 C 15,1 C 14,5 km/h (3 Bft)
27.10.2022 21:24 15,8 C 13,9 C 86 % 1024,0 hPa 0,0 l/m 4,5 km/h (1 Bft) S 175 0 min 0,0 UV-I 0 W/m 13,5 C 15,8 C 9,7 km/h (2 Bft)
27.10.2022 21:27 15,8 C 13,9 C 86 % 1024,0 hPa 0,0 l/m 3,2 km/h (1 Bft) S 175 0 min 0,0 UV-I 0 W/m 13,5 C 15,8 C 8,0 km/h (2 Bft)
27.10.2022 21:30 15,7 C 13,3 C 86 % 1023,9 hPa 0,0 l/m 2,1 km/h (1 Bft) S 175 0 min 0,0 UV-I 0 W/m 13,4 C 15,7 C 3,2 km/h (1 Bft)
27.10.2022 21:33 15,4 C 12,8 C 87 % 1024,0 hPa 0,0 l/m 3,3 km/h (1 Bft) S 169 0 min 0,0 UV-I 0 W/m 13,2 C 15,4 C 11,3 km/h (2 Bft)
27.10.2022 21:36 15,5 C 13,3 C 87 % 1024,1 hPa 0,0 l/m 5,5 km/h (1 Bft) S 171 0 min 0,0 UV-I 0 W/m 13,3 C 15,5 C 9,7 km/h (2 Bft)
27.10.2022 21:39 15,6 C 12,8 C 87 % 1024,0 hPa 0,0 l/m 3,3 km/h (1 Bft) S 171 0 min 0,0 UV-I 0 W/m 13,4 C 15,6 C 6,4 km/h (2 Bft)
27.10.2022 21:42 15,6 C 12,8 C 87 % 1024,0 hPa 0,0 l/m 2,9 km/h (1 Bft) S 171 0 min 0,0 UV-I 0 W/m 13,4 C 15,6 C 6,4 km/h (2 Bft)
27.10.2022 21:45 15,5 C 12,8 C 87 % 1023,9 hPa 0,0 l/m 0,3 km/h (0 Bft) S 171 0 min 0,0 UV-I 0 W/m 13,3 C 15,5 C 3,2 km/h (1 Bft)
27.10.2022 21:48 15,4 C 12,2 C 87 % 1023,9 hPa 0,0 l/m 1,8 km/h (1 Bft) S 171 0 min 0,0 UV-I 0 W/m 13,2 C 15,4 C 6,4 km/h (2 Bft)
27.10.2022 21:51 15,3 C 11,7 C 88 % 1023,9 hPa 0,0 l/m 1,3 km/h (1 Bft) S 171 0 min 0,0 UV-I 0 W/m 13,3 C 15,3 C 3,2 km/h (1 Bft)
27.10.2022 21:54 15,2 C 12,2 C 88 % 1023,9 hPa 0,0 l/m 1,0 km/h (0 Bft) S 171 0 min 0,0 UV-I 0 W/m 13,2 C 15,2 C 3,2 km/h (1 Bft)
27.10.2022 21:57 15,1 C 12,2 C 88 % 1024,0 hPa 0,0 l/m 1,9 km/h (1 Bft) S 171 0 min 0,0 UV-I 0 W/m 13,1 C 15,1 C 6,4 km/h (2 Bft)
27.10.2022 22:00 15,2 C 11,7 C 89 % 1024,0 hPa 0,0 l/m 2,5 km/h (1 Bft) S 171 0 min 0,0 UV-I 0 W/m 13,4 C 15,2 C 6,4 km/h (2 Bft)
27.10.2022 22:03 15,1 C 12,2 C 88 % 1024,1 hPa 0,0 l/m 4,7 km/h (1 Bft) SO 144 0 min 0,0 UV-I 0 W/m 13,1 C 15,1 C 9,7 km/h (2 Bft)
27.10.2022 22:06 15,0 C 12,2 C 88 % 1024,0 hPa 0,0 l/m 3,8 km/h (1 Bft) SO 145 0 min 0,0 UV-I 0 W/m 13,0 C 15,0 C 6,4 km/h (2 Bft)
27.10.2022 22:09 15,0 C 12,2 C 89 % 1024,0 hPa 0,0 l/m 2,6 km/h (1 Bft) SO 145 0 min 0,0 UV-I 0 W/m 13,2 C 15,0 C 4,8 km/h (1 Bft)
27.10.2022 22:12 15,1 C 12,2 C 89 % 1024,0 hPa 0,0 l/m 3,8 km/h (1 Bft) SO 145 0 min 0,0 UV-I 0 W/m 13,3 C 15,1 C 6,4 km/h (2 Bft)
27.10.2022 22:15 15,1 C 12,8 C 88 % 1024,0 hPa 0,0 l/m 4,1 km/h (1 Bft) S 183 0 min 0,0 UV-I 0 W/m 13,1 C 15,1 C 11,3 km/h (2 Bft)
27.10.2022 22:18 15,1 C 12,8 C 88 % 1023,9 hPa 0,0 l/m 5,9 km/h (2 Bft) S-SO 165 0 min 0,0 UV-I 0 W/m 13,1 C 15,1 C 12,9 km/h (3 Bft)
27.10.2022 22:21 15,2 C 13,3 C 88 % 1023,9 hPa 0,0 l/m 6,6 km/h (2 Bft) S-SO 150 0 min 0,0 UV-I 0 W/m 13,2 C 15,1 C 11,3 km/h (2 Bft)
27.10.2022 22:24 15,2 C 13,3 C 88 % 1023,9 hPa 0,0 l/m 4,8 km/h (1 Bft) S-SO 153 0 min 0,0 UV-I 0 W/m 13,2 C 15,2 C 9,7 km/h (2 Bft)
27.10.2022 22:27 15,2 C 13,3 C 88 % 1024,0 hPa 0,0 l/m 6,6 km/h (2 Bft) S-SO 157 0 min 0,0 UV-I 0 W/m 13,2 C 15,1 C 9,7 km/h (2 Bft)
27.10.2022 22:30 15,2 C 13,3 C 88 % 1023,9 hPa 0,0 l/m 8,1 km/h (2 Bft) SO 143 0 min 0,0 UV-I 0 W/m 13,2 C 14,3 C 11,3 km/h (2 Bft)
27.10.2022 22:33 15,3 C 13,9 C 88 % 1023,8 hPa 0,0 l/m 6,8 km/h (2 Bft) SO 131 0 min 0,0 UV-I 0 W/m 13,3 C 15,1 C 11,3 km/h (2 Bft)
27.10.2022 22:36 15,4 C 13,9 C 87 % 1023,7 hPa 0,0 l/m 7,3 km/h (2 Bft) S-SO 157 0 min 0,0 UV-I 0 W/m 13,2 C 14,9 C 12,9 km/h (3 Bft)
27.10.2022 22:39 15,6 C 13,9 C 87 % 1023,9 hPa 0,0 l/m 7,7 km/h (2 Bft) S-SO 163 0 min 0,0 UV-I 0 W/m 13,4 C 14,9 C 12,9 km/h (3 Bft)
27.10.2022 22:42 15,7 C 14,4 C 87 % 1023,9 hPa 0,0 l/m 9,8 km/h (2 Bft) S 169 0 min 0,0 UV-I 0 W/m 13,5 C 14,0 C 14,5 km/h (3 Bft)
27.10.2022 22:45 15,7 C 14,4 C 86 % 1023,8 hPa 0,0 l/m 8,1 km/h (2 Bft) S 174 0 min 0,0 UV-I 0 W/m 13,4 C 14,8 C 12,9 km/h (3 Bft)
27.10.2022 22:48 15,7 C 14,4 C 86 % 1024,0 hPa 0,0 l/m 8,9 km/h (2 Bft) S-SO 163 0 min 0,0 UV-I 0 W/m 13,4 C 14,4 C 12,9 km/h (3 Bft)
27.10.2022 22:51 15,7 C 14,4 C 86 % 1023,8 hPa 0,0 l/m 8,1 km/h (2 Bft) S-SO 156 0 min 0,0 UV-I 0 W/m 13,4 C 14,8 C 11,3 km/h (2 Bft)
27.10.2022 22:54 15,6 C 14,4 C 86 % 1023,8 hPa 0,0 l/m 8,5 km/h (2 Bft) S-SO 164 0 min 0,0 UV-I 0 W/m 13,3 C 14,5 C 12,9 km/h (3 Bft)
27.10.2022 22:57 15,6 C 14,4 C 86 % 1023,9 hPa 0,0 l/m 8,5 km/h (2 Bft) S-SO 150 0 min 0,0 UV-I 0 W/m 13,3 C 14,5 C 12,9 km/h (3 Bft)
27.10.2022 23:00 15,6 C 14,4 C 86 % 1023,9 hPa 0,0 l/m 7,8 km/h (2 Bft) SO 145 0 min 0,0 UV-I 0 W/m 13,3 C 14,8 C 11,3 km/h (2 Bft)
27.10.2022 23:03 15,6 C 14,4 C 87 % 1023,9 hPa 0,0 l/m 6,2 km/h (2 Bft) S-SO 153 0 min 0,0 UV-I 0 W/m 13,4 C 15,6 C 9,7 km/h (2 Bft)
27.10.2022 23:06 15,6 C 14,4 C 87 % 1023,8 hPa 0,0 l/m 7,8 km/h (2 Bft) SO 146 0 min 0,0 UV-I 0 W/m 13,4 C 14,8 C 12,9 km/h (3 Bft)
27.10.2022 23:09 15,7 C 14,4 C 86 % 1023,8 hPa 0,0 l/m 6,3 km/h (2 Bft) S-SO 152 0 min 0,0 UV-I 0 W/m 13,4 C 15,7 C 9,7 km/h (2 Bft)
27.10.2022 23:12 15,7 C 14,4 C 86 % 1023,9 hPa 0,0 l/m 6,1 km/h (2 Bft) S-SO 148 0 min 0,0 UV-I 0 W/m 13,4 C 15,7 C 11,3 km/h (2 Bft)
27.10.2022 23:15 15,7 C 14,4 C 86 % 1023,7 hPa 0,0 l/m 7,6 km/h (2 Bft) S-SO 161 0 min 0,0 UV-I 0 W/m 13,4 C 15,0 C 11,3 km/h (2 Bft)
27.10.2022 23:18 15,8 C 14,4 C 86 % 1023,7 hPa 0,0 l/m 5,2 km/h (1 Bft) S-SO 162 0 min 0,0 UV-I 0 W/m 13,5 C 15,8 C 8,0 km/h (2 Bft)
27.10.2022 23:21 15,8 C 14,4 C 86 % 1023,8 hPa 0,0 l/m 5,6 km/h (1 Bft) S-SO 153 0 min 0,0 UV-I 0 W/m 13,5 C 15,8 C 8,0 km/h (2 Bft)
27.10.2022 23:24 15,8 C 14,4 C 86 % 1023,8 hPa 0,0 l/m 5,6 km/h (1 Bft) S-SO 163 0 min 0,0 UV-I 0 W/m 13,5 C 15,8 C 9,7 km/h (2 Bft)
27.10.2022 23:27 15,8 C 14,4 C 86 % 1023,7 hPa 0,0 l/m 8,4 km/h (2 Bft) S-SO 160 0 min 0,0 UV-I 0 W/m 13,5 C 14,7 C 12,9 km/h (3 Bft)
27.10.2022 23:30 15,8 C 14,4 C 85 % 1023,7 hPa 0,0 l/m 7,1 km/h (2 Bft) S-SO 168 0 min 0,0 UV-I 0 W/m 13,3 C 15,4 C 11,3 km/h (2 Bft)
27.10.2022 23:33 15,9 C 14,4 C 85 % 1023,7 hPa 0,0 l/m 6,2 km/h (2 Bft) S-SO 159 0 min 0,0 UV-I 0 W/m 13,4 C 15,9 C 11,3 km/h (2 Bft)
27.10.2022 23:36 15,9 C 14,4 C 85 % 1023,8 hPa 0,0 l/m 7,2 km/h (2 Bft) S-SO 153 0 min 0,0 UV-I 0 W/m 13,4 C 15,5 C 12,9 km/h (3 Bft)
27.10.2022 23:39 15,8 C 14,4 C 85 % 1023,7 hPa 0,0 l/m 6,5 km/h (2 Bft) SO 138 0 min 0,0 UV-I 0 W/m 13,3 C 15,8 C 14,5 km/h (3 Bft)
27.10.2022 23:42 15,8 C 14,4 C 85 % 1023,6 hPa 0,0 l/m 6,6 km/h (2 Bft) S-SO 161 0 min 0,0 UV-I 0 W/m 13,3 C 15,7 C 11,3 km/h (2 Bft)
27.10.2022 23:45 15,8 C 14,4 C 85 % 1023,6 hPa 0,0 l/m 7,1 km/h (2 Bft) S 171 0 min 0,0 UV-I 0 W/m 13,3 C 15,4 C 11,3 km/h (2 Bft)
27.10.2022 23:48 15,7 C 14,4 C 86 % 1023,5 hPa 0,0 l/m 9,3 km/h (2 Bft) S-SO 154 0 min 0,0 UV-I 0 W/m 13,4 C 14,2 C 14,5 km/h (3 Bft)
27.10.2022 23:51 15,8 C 14,4 C 86 % 1023,5 hPa 0,0 l/m 8,2 km/h (2 Bft) S-SO 161 0 min 0,0 UV-I 0 W/m 13,5 C 14,8 C 11,3 km/h (2 Bft)
27.10.2022 23:54 15,8 C 14,4 C 86 % 1023,3 hPa 0,0 l/m 10,3 km/h (2 Bft) S-SO 162 0 min 0,0 UV-I 0 W/m 13,5 C 13,9 C 17,7 km/h (3 Bft)
27.10.2022 23:57 15,8 C 14,4 C 86 % 1023,4 hPa 0,0 l/m 11,9 km/h (2 Bft) SO 142 0 min 0,0 UV-I 0 W/m 13,5 C 13,2 C 20,9 km/h (4 Bft)
_ Min-Zeit 08:24 08:18 12:33 23:54 - 00:12 - - - - - 08:18 08:18 00:12
Minimum _ 3,6 C 2,2 C 73 % 1023,3 hPa - 0,0 km/h (0 Bft) - - - - - 2,8 C 3,7 C 0,0 km/h (0 Bft)
_ Max-Zeit 14:30 13:09 10:27 03:06 00:00 11:42 - - 12:09 12:48 13:45 14:03 13:09 11:33
Maximum _ 18,8 C 27,2 C 96 % 1025,6 hPa 0,0 l/m 16,0 km/h
S-SO (3 Bft)
- - 6 min 2,2 UV-I 433 W/m 14,1 C 18,3 C 30,6 km/h
S-SO (5 Bft)
Durchschnitt _ 11,7 C 11,8 C 87 % 1024,6 hPa #0,0 l/m 5,1 km/h (1 Bft) S-SO - #3:21 h 1,5 UV-I 205 W/m 9,5 C 11,0 C 9,0 km/h (2 Bft)